Time,TemperatureF,DewpointF,PressureIn,WindDirection,WindDirectionDegrees,WindSpeedMPH,WindSpeedGustMPH,Humidity,HourlyPrecipIn,Conditions,Clouds,dailyrainin,SoftwareType,DateUTC
2013-10-07 00:00:00,80.9,74.5,29.91,SW,225,0.0,0.0,81,0.00,,---,0.00,VWS V13.01,2013-10-07 04:00:00,
2013-10-07 00:01:00,80.9,74.5,29.91,South,180,0.0,0.0,81,0.00,,---,0.00,VWS V13.01,2013-10-07 04:01:00,
2013-10-07 00:06:00,80.9,74.5,29.91,SSE,158,0.0,0.0,81,0.00,,---,0.00,VWS V13.01,2013-10-07 04:06:00,
2013-10-07 00:11:00,80.9,74.5,29.91,South,180,0.0,0.0,81,0.00,,---,0.00,VWS V13.01,2013-10-07 04:11:00,
2013-10-07 00:16:00,80.7,74.7,29.91,SSE,158,0.0,0.0,82,0.00,,---,0.00,VWS V13.01,2013-10-07 04:16:00,
2013-10-07 00:21:00,80.9,74.9,29.91,WSW,248,0.0,0.0,82,0.00,,---,0.00,VWS V13.01,2013-10-07 04:21:00,
2013-10-07 00:26:00,80.7,74.7,29.91,WSW,248,0.0,0.0,82,0.00,,---,0.00,VWS V13.01,2013-10-07 04:26:00,
2013-10-07 00:31:00,80.7,75.1,29.91,WSW,248,0.0,0.0,83,0.00,,---,0.00,VWS V13.01,2013-10-07 04:31:00,
2013-10-07 00:32:00,80.7,75.1,29.91,WSW,248,0.0,0.0,83,0.00,,---,0.00,VWS V13.01,2013-10-07 04:32:00,
2013-10-07 00:36:00,80.7,75.1,29.91,WSW,248,0.0,0.0,83,0.00,,---,0.00,VWS V13.01,2013-10-07 04:36:00,
2013-10-07 00:37:00,80.7,75.1,29.91,WSW,248,0.0,0.0,83,0.00,,---,0.00,VWS V13.01,2013-10-07 04:37:00,
2013-10-07 00:41:00,80.7,75.1,29.90,WSW,248,0.0,0.0,83,0.00,,---,0.00,VWS V13.01,2013-10-07 04:41:00,
2013-10-07 00:42:00,80.7,75.1,29.90,WSW,248,0.0,0.0,83,0.00,,---,0.00,VWS V13.01,2013-10-07 04:42:00,
2013-10-07 00:46:00,80.7,75.1,29.90,SW,225,0.0,0.0,83,0.00,,---,0.00,VWS V13.01,2013-10-07 04:46:00,
2013-10-07 00:47:00,80.6,75.0,29.91,SW,225,0.0,0.0,83,0.00,,---,0.00,VWS V13.01,2013-10-07 04:47:00,
2013-10-07 00:51:00,80.6,75.0,29.90,SW,225,0.0,0.0,83,0.00,,---,0.00,VWS V13.01,2013-10-07 04:51:00,
2013-10-07 00:52:00,80.6,75.0,29.90,SW,225,0.0,0.0,83,0.00,,---,0.00,VWS V13.01,2013-10-07 04:52:00,
2013-10-07 00:56:00,80.6,75.0,29.91,South,180,0.0,0.0,83,0.00,,---,0.00,VWS V13.01,2013-10-07 04:56:00,
2013-10-07 00:57:00,80.4,74.8,29.91,South,180,1.1,1.1,83,0.00,,---,0.00,VWS V13.01,2013-10-07 04:57:00,
2013-10-07 01:01:00,80.6,75.0,29.90,South,180,0.0,0.0,83,0.00,,---,0.00,VWS V13.01,2013-10-07 05:01:00,
2013-10-07 01:02:00,80.6,75.0,29.90,South,180,0.0,0.0,83,0.00,,---,0.00,VWS V13.01,2013-10-07 05:02:00,
2013-10-07 01:06:00,80.6,75.0,29.91,SSW,202,0.0,0.0,83,0.00,,---,0.00,VWS V13.01,2013-10-07 05:06:00,
2013-10-07 01:07:00,80.6,75.0,29.91,SSW,202,0.0,0.0,83,0.00,,---,0.00,VWS V13.01,2013-10-07 05:07:00,
2013-10-07 01:08:00,80.4,74.8,29.91,SSW,202,0.0,0.0,83,0.00,,---,0.00,VWS V13.01,2013-10-07 05:08:00,
2013-10-07 01:11:00,80.4,74.8,29.91,SSW,202,0.0,0.0,83,0.00,,---,0.00,VWS V13.01,2013-10-07 05:11:00,
2013-10-07 01:12:00,80.4,74.8,29.91,SSW,202,0.0,0.0,83,0.00,,---,0.00,VWS V13.01,2013-10-07 05:12:00,
2013-10-07 01:13:00,80.4,74.8,29.90,SSW,202,0.0,0.0,83,0.00,,---,0.00,VWS V13.01,2013-10-07 05:13:00,
2013-10-07 01:16:00,80.4,74.8,29.91,SSW,202,0.0,0.0,83,0.00,,---,0.00,VWS V13.01,2013-10-07 05:16:00,
2013-10-07 01:17:00,80.4,74.8,29.91,SSW,202,0.0,0.0,83,0.00,,---,0.00,VWS V13.01,2013-10-07 05:17:00,
2013-10-07 01:18:00,80.4,74.8,29.91,SSW,202,0.0,0.0,83,0.00,,---,0.00,VWS V13.01,2013-10-07 05:18:00,
2013-10-07 01:21:00,80.4,75.1,29.90,SSW,202,0.0,0.0,84,0.00,,---,0.00,VWS V13.01,2013-10-07 05:21:00,
2013-10-07 01:22:00,80.4,75.1,29.90,SSW,202,0.0,0.0,84,0.00,,---,0.00,VWS V13.01,2013-10-07 05:22:00,
2013-10-07 01:23:00,80.4,75.1,29.91,SSW,202,0.0,0.0,84,0.00,,---,0.00,VWS V13.01,2013-10-07 05:23:00,
2013-10-07 01:27:00,80.4,75.1,29.91,SSW,202,0.0,0.0,84,0.00,,---,0.00,VWS V13.01,2013-10-07 05:27:00,
2013-10-07 01:28:00,80.4,75.1,29.91,SSW,202,0.0,0.0,84,0.00,,---,0.00,VWS V13.01,2013-10-07 05:28:00,
2013-10-07 01:32:00,80.4,75.1,29.90,SSW,202,0.0,0.0,84,0.00,,---,0.00,VWS V13.01,2013-10-07 05:32:00,
2013-10-07 01:33:00,80.4,75.1,29.90,SSW,202,0.0,0.0,84,0.00,,---,0.00,VWS V13.01,2013-10-07 05:33:00,
2013-10-07 01:37:00,80.4,75.1,29.90,WSW,248,0.0,0.0,84,0.00,,---,0.00,VWS V13.01,2013-10-07 05:37:00,
2013-10-07 01:38:00,80.4,75.1,29.90,WSW,248,0.0,0.0,84,0.00,,---,0.00,VWS V13.01,2013-10-07 05:38:00,
2013-10-07 01:42:00,80.4,75.1,29.90,WSW,248,0.0,0.0,84,0.00,,---,0.00,VWS V13.01,2013-10-07 05:42:00,
2013-10-07 01:43:00,80.4,75.1,29.89,WSW,248,0.0,0.0,84,0.00,,---,0.00,VWS V13.01,2013-10-07 05:43:00,
2013-10-07 01:47:00,80.4,75.1,29.89,WSW,248,0.0,0.0,84,0.00,,---,0.00,VWS V13.01,2013-10-07 05:47:00,
2013-10-07 01:48:00,80.4,75.1,29.89,WSW,248,0.0,0.0,84,0.00,,---,0.00,VWS V13.01,2013-10-07 05:48:00,
2013-10-07 01:52:00,80.2,74.9,29.89,SW,225,0.0,0.0,84,0.00,,---,0.00,VWS V13.01,2013-10-07 05:52:00,
2013-10-07 01:53:00,80.2,74.9,29.89,SW,225,0.0,0.0,84,0.00,,---,0.00,VWS V13.01,2013-10-07 05:53:00,
2013-10-07 01:57:00,80.2,74.9,29.89,South,180,0.0,0.0,84,0.00,,---,0.00,VWS V13.01,2013-10-07 05:57:00,
2013-10-07 01:58:00,80.2,74.9,29.89,South,180,0.0,0.0,84,0.00,,---,0.00,VWS V13.01,2013-10-07 05:58:00,
2013-10-07 02:02:00,80.2,74.9,29.89,SSE,158,0.0,0.0,84,0.00,,---,0.00,VWS V13.01,2013-10-07 06:02:00,
2013-10-07 02:03:00,80.2,74.9,29.89,SSE,158,0.0,0.0,84,0.00,,---,0.00,VWS V13.01,2013-10-07 06:03:00,
2013-10-07 02:04:00,80.2,74.9,29.89,South,180,1.3,1.3,84,0.00,,---,0.00,VWS V13.01,2013-10-07 06:04:00,
2013-10-07 02:07:00,80.2,74.9,29.89,SSE,158,2.0,2.0,84,0.00,,---,0.00,VWS V13.01,2013-10-07 06:07:00,
2013-10-07 02:08:00,80.2,74.9,29.89,South,180,1.3,1.3,84,0.00,,---,0.00,VWS V13.01,2013-10-07 06:08:00,
2013-10-07 02:09:00,80.2,74.9,29.89,South,180,1.3,1.3,84,0.00,,---,0.00,VWS V13.01,2013-10-07 06:09:00,
2013-10-07 02:12:00,80.2,74.9,29.89,SSE,158,0.0,0.0,84,0.00,,---,0.00,VWS V13.01,2013-10-07 06:12:00,
2013-10-07 02:13:00,80.2,74.9,29.89,South,180,0.0,0.0,84,0.00,,---,0.00,VWS V13.01,2013-10-07 06:13:00,
2013-10-07 02:14:00,80.2,74.9,29.89,SSW,202,1.5,1.5,84,0.00,,---,0.00,VWS V13.01,2013-10-07 06:14:00,
2013-10-07 02:17:00,80.2,74.9,29.89,SSE,158,0.0,0.0,84,0.00,,---,0.00,VWS V13.01,2013-10-07 06:17:00,
2013-10-07 02:18:00,80.2,74.9,29.89,South,180,2.0,2.0,84,0.00,,---,0.00,VWS V13.01,2013-10-07 06:18:00,
2013-10-07 02:19:00,80.2,74.9,29.89,South,180,2.0,2.0,84,0.00,,---,0.00,VWS V13.01,2013-10-07 06:19:00,
2013-10-07 02:22:00,80.2,74.9,29.89,South,180,0.0,0.0,84,0.00,,---,0.00,VWS V13.01,2013-10-07 06:22:00,
2013-10-07 02:23:00,80.2,74.9,29.89,South,180,0.0,0.0,84,0.00,,---,0.00,VWS V13.01,2013-10-07 06:23:00,
2013-10-07 02:24:00,80.2,74.9,29.89,South,180,0.0,0.0,84,0.00,,---,0.00,VWS V13.01,2013-10-07 06:24:00,
2013-10-07 02:27:00,80.2,74.9,29.89,SSW,202,0.0,0.0,84,0.00,,---,0.00,VWS V13.01,2013-10-07 06:27:00,
2013-10-07 02:29:00,80.2,74.9,29.89,SSW,202,0.0,0.0,84,0.00,,---,0.00,VWS V13.01,2013-10-07 06:29:00,
2013-10-07 02:32:00,80.2,74.9,29.89,SSW,202,0.0,0.0,84,0.00,,---,0.00,VWS V13.01,2013-10-07 06:32:00,
2013-10-07 02:34:00,80.2,74.9,29.89,South,180,0.0,0.0,84,0.00,,---,0.00,VWS V13.01,2013-10-07 06:34:00,
2013-10-07 02:35:00,80.2,74.9,29.89,South,180,0.0,0.0,84,0.00,,---,0.00,VWS V13.01,2013-10-07 06:35:00,
2013-10-07 02:37:00,80.2,74.9,29.89,South,180,0.0,0.0,84,0.00,,---,0.00,VWS V13.01,2013-10-07 06:37:00,
2013-10-07 02:39:00,80.0,74.7,29.89,South,180,0.0,0.0,84,0.00,,---,0.00,VWS V13.01,2013-10-07 06:39:00,
2013-10-07 02:40:00,80.0,74.7,29.89,South,180,0.0,0.0,84,0.00,,---,0.00,VWS V13.01,2013-10-07 06:40:00,
2013-10-07 02:42:00,80.0,74.7,29.89,SE,135,0.0,0.0,84,0.00,,---,0.00,VWS V13.01,2013-10-07 06:42:00,
2013-10-07 02:43:00,80.0,74.7,29.89,SE,135,0.0,0.0,84,0.00,,---,0.00,VWS V13.01,2013-10-07 06:43:00,
2013-10-07 02:44:00,80.0,74.7,29.89,SSE,158,0.0,0.0,84,0.00,,---,0.00,VWS V13.01,2013-10-07 06:44:00,
2013-10-07 02:45:00,80.0,74.7,29.89,SSE,158,0.0,0.0,84,0.00,,---,0.00,VWS V13.01,2013-10-07 06:45:00,
2013-10-07 02:47:00,80.0,74.7,29.89,SSE,158,0.0,0.0,84,0.00,,---,0.00,VWS V13.01,2013-10-07 06:47:00,
2013-10-07 02:48:00,80.0,74.7,29.89,SSE,158,0.0,0.0,84,0.00,,---,0.00,VWS V13.01,2013-10-07 06:48:00,
2013-10-07 02:49:00,80.0,74.7,29.89,SSE,158,0.0,0.0,84,0.00,,---,0.00,VWS V13.01,2013-10-07 06:49:00,
2013-10-07 02:50:00,80.0,74.7,29.89,SSE,158,0.0,0.0,84,0.00,,---,0.00,VWS V13.01,2013-10-07 06:50:00,
2013-10-07 02:52:00,80.0,74.7,29.89,SSE,158,0.0,0.0,84,0.00,,---,0.00,VWS V13.01,2013-10-07 06:52:00,
2013-10-07 02:53:00,80.0,74.7,29.89,SSE,158,0.0,0.0,84,0.00,,---,0.00,VWS V13.01,2013-10-07 06:53:00,
2013-10-07 02:54:00,80.0,74.7,29.89,SSE,158,0.0,0.0,84,0.00,,---,0.00,VWS V13.01,2013-10-07 06:54:00,
2013-10-07 02:55:00,80.0,74.7,29.89,SSE,158,0.0,0.0,84,0.00,,---,0.00,VWS V13.01,2013-10-07 06:55:00,
2013-10-07 02:57:00,79.8,74.5,29.88,SSE,158,0.0,0.0,84,0.00,,---,0.00,VWS V13.01,2013-10-07 06:57:00,
2013-10-07 02:58:00,79.8,74.5,29.88,SSE,158,0.0,0.0,84,0.00,,---,0.00,VWS V13.01,2013-10-07 06:58:00,
2013-10-07 02:59:00,79.8,74.5,29.88,SSE,158,0.0,0.0,84,0.00,,---,0.00,VWS V13.01,2013-10-07 06:59:00,
2013-10-07 03:00:00,79.8,74.5,29.89,SSE,158,0.0,0.0,84,0.00,,---,0.00,VWS V13.01,2013-10-07 07:00:00,
2013-10-07 03:02:00,79.8,74.5,29.89,SSE,158,0.0,0.0,84,0.00,,---,0.00,VWS V13.01,2013-10-07 07:02:00,
2013-10-07 03:03:00,79.8,74.5,29.89,SSE,158,0.0,0.0,84,0.00,,---,0.00,VWS V13.01,2013-10-07 07:03:00,
2013-10-07 03:04:00,79.8,74.5,29.88,SSE,158,0.0,0.0,84,0.00,,---,0.00,VWS V13.01,2013-10-07 07:04:00,
2013-10-07 03:05:00,79.8,74.5,29.89,SSE,158,0.0,0.0,84,0.00,,---,0.00,VWS V13.01,2013-10-07 07:05:00,
2013-10-07 03:07:00,79.8,74.9,29.89,South,180,1.3,1.3,85,0.00,,---,0.00,VWS V13.01,2013-10-07 07:07:00,
2013-10-07 03:08:00,79.8,74.5,29.89,SSW,202,1.5,1.5,84,0.00,,---,0.00,VWS V13.01,2013-10-07 07:08:00,
2013-10-07 03:09:00,79.8,74.5,29.89,SSW,202,0.0,0.0,84,0.00,,---,0.00,VWS V13.01,2013-10-07 07:09:00,
2013-10-07 03:10:00,79.8,74.5,29.89,South,180,0.0,0.0,84,0.00,,---,0.00,VWS V13.01,2013-10-07 07:10:00,
2013-10-07 03:12:00,79.8,74.9,29.89,South,180,0.0,0.0,85,0.00,,---,0.00,VWS V13.01,2013-10-07 07:12:00,
2013-10-07 03:13:00,79.8,74.5,29.89,South,180,0.0,0.0,84,0.00,,---,0.00,VWS V13.01,2013-10-07 07:13:00,
2013-10-07 03:14:00,79.8,74.9,29.89,SSE,158,0.0,0.0,85,0.00,,---,0.00,VWS V13.01,2013-10-07 07:14:00,
2013-10-07 03:15:00,79.8,74.9,29.89,SSE,158,0.0,0.0,85,0.00,,---,0.00,VWS V13.01,2013-10-07 07:15:00,
2013-10-07 03:17:00,79.8,74.5,29.89,SSE,158,0.0,0.0,84,0.00,,---,0.00,VWS V13.01,2013-10-07 07:17:00,
2013-10-07 03:18:00,79.8,74.5,29.89,SSE,158,0.0,0.0,84,0.00,,---,0.00,VWS V13.01,2013-10-07 07:18:00,
2013-10-07 03:19:00,79.8,74.5,29.89,SSE,158,0.0,0.0,84,0.00,,---,0.00,VWS V13.01,2013-10-07 07:19:00,
2013-10-07 03:20:00,79.8,74.9,29.89,SSE,158,0.0,0.0,85,0.00,,---,0.00,VWS V13.01,2013-10-07 07:20:00,
2013-10-07 03:22:00,79.8,74.5,29.89,SSE,158,0.0,0.0,84,0.00,,---,0.00,VWS V13.01,2013-10-07 07:22:00,
2013-10-07 03:23:00,79.8,74.5,29.89,South,180,0.0,0.0,84,0.00,,---,0.00,VWS V13.01,2013-10-07 07:23:00,
2013-10-07 03:24:00,79.8,74.5,29.89,South,180,0.0,0.0,84,0.00,,---,0.00,VWS V13.01,2013-10-07 07:24:00,
2013-10-07 03:25:00,79.8,74.5,29.89,South,180,0.0,0.0,84,0.00,,---,0.00,VWS V13.01,2013-10-07 07:25:00,
2013-10-07 03:26:00,79.8,74.5,29.89,South,180,0.0,0.0,84,0.00,,---,0.00,VWS V13.01,2013-10-07 07:26:00,
2013-10-07 03:27:00,79.8,74.5,29.89,South,180,0.0,0.0,84,0.00,,---,0.00,VWS V13.01,2013-10-07 07:27:00,
2013-10-07 03:28:00,79.8,74.5,29.89,South,180,0.0,0.0,84,0.00,,---,0.00,VWS V13.01,2013-10-07 07:28:00,
2013-10-07 03:29:00,79.7,74.4,29.89,South,180,0.0,0.0,84,0.00,,---,0.00,VWS V13.01,2013-10-07 07:29:00,
2013-10-07 03:31:00,79.7,74.4,29.89,South,180,0.0,0.0,84,0.00,,---,0.00,VWS V13.01,2013-10-07 07:31:00,
2013-10-07 03:32:00,79.7,74.4,29.89,South,180,0.0,0.0,84,0.00,,---,0.00,VWS V13.01,2013-10-07 07:32:00,
2013-10-07 03:33:00,79.7,74.4,29.89,South,180,0.0,0.0,84,0.00,,---,0.00,VWS V13.01,2013-10-07 07:33:00,
2013-10-07 03:34:00,79.7,74.4,29.89,South,180,0.0,0.0,84,0.00,,---,0.00,VWS V13.01,2013-10-07 07:34:00,
2013-10-07 03:36:00,79.7,74.4,29.89,South,180,0.0,0.0,84,0.00,,---,0.00,VWS V13.01,2013-10-07 07:36:00,
2013-10-07 03:37:00,79.7,74.4,29.89,South,180,0.0,0.0,84,0.00,,---,0.00,VWS V13.01,2013-10-07 07:37:00,
2013-10-07 03:38:00,79.7,74.4,29.89,South,180,0.0,0.0,84,0.00,,---,0.00,VWS V13.01,2013-10-07 07:38:00,
2013-10-07 03:39:00,79.7,74.4,29.89,South,180,0.0,0.0,84,0.00,,---,0.00,VWS V13.01,2013-10-07 07:39:00,
2013-10-07 03:41:00,79.7,74.4,29.89,South,180,0.0,0.0,84,0.00,,---,0.00,VWS V13.01,2013-10-07 07:41:00,
2013-10-07 03:42:00,79.5,74.2,29.89,SW,225,1.7,1.7,84,0.00,,---,0.00,VWS V13.01,2013-10-07 07:42:00,
2013-10-07 03:43:00,79.7,74.4,29.88,South,180,0.0,0.0,84,0.00,,---,0.00,VWS V13.01,2013-10-07 07:43:00,
2013-10-07 03:44:00,79.7,74.4,29.88,South,180,0.0,0.0,84,0.00,,---,0.00,VWS V13.01,2013-10-07 07:44:00,
2013-10-07 03:46:00,79.7,74.8,29.88,South,180,0.0,0.0,85,0.00,,---,0.00,VWS V13.01,2013-10-07 07:46:00,
2013-10-07 03:47:00,79.5,74.2,29.88,South,180,0.0,0.0,84,0.00,,---,0.00,VWS V13.01,2013-10-07 07:47:00,
2013-10-07 03:49:00,79.7,74.4,29.88,South,180,0.0,0.0,84,0.00,,---,0.00,VWS V13.01,2013-10-07 07:49:00,
2013-10-07 03:50:00,79.5,74.2,29.89,South,180,1.5,1.5,84,0.00,,---,0.00,VWS V13.01,2013-10-07 07:50:00,
2013-10-07 03:51:00,79.5,74.2,29.89,South,180,1.5,1.5,84,0.00,,---,0.00,VWS V13.01,2013-10-07 07:51:00,
2013-10-07 03:52:00,79.5,74.6,29.88,SSE,158,0.0,0.0,85,0.00,,---,0.00,VWS V13.01,2013-10-07 07:52:00,
2013-10-07 03:54:00,79.5,74.6,29.89,SSE,158,1.5,1.5,85,0.00,,---,0.00,VWS V13.01,2013-10-07 07:54:00,
2013-10-07 03:55:00,79.5,74.6,29.89,South,180,0.0,0.0,85,0.00,,---,0.00,VWS V13.01,2013-10-07 07:55:00,
2013-10-07 03:56:00,79.5,74.6,29.88,South,180,0.0,0.0,85,0.00,,---,0.02,VWS V13.01,2013-10-07 07:56:00,
2013-10-07 03:57:00,79.5,74.6,29.88,South,180,0.0,0.0,85,0.00,,---,0.00,VWS V13.01,2013-10-07 07:57:00,
2013-10-07 03:59:00,79.5,74.6,29.88,SSE,158,0.0,0.0,85,0.00,,---,0.00,VWS V13.01,2013-10-07 07:59:00,
2013-10-07 04:00:00,79.5,74.6,29.88,SSE,158,0.0,0.0,85,0.00,,---,0.00,VWS V13.01,2013-10-07 08:00:00,
2013-10-07 04:01:00,79.5,74.6,29.88,SSE,158,0.0,0.0,85,0.00,,---,0.00,VWS V13.01,2013-10-07 08:01:00,
2013-10-07 04:02:00,79.5,74.6,29.88,South,180,0.0,0.0,85,0.00,,---,0.00,VWS V13.01,2013-10-07 08:02:00,
2013-10-07 04:04:00,79.5,74.6,29.88,SSW,202,0.0,0.0,85,0.00,,---,0.00,VWS V13.01,2013-10-07 08:04:00,
2013-10-07 04:05:00,79.5,74.6,29.88,SSW,202,0.0,0.0,85,0.00,,---,0.00,VWS V13.01,2013-10-07 08:05:00,
2013-10-07 04:06:00,79.5,74.6,29.88,SSW,202,0.0,0.0,85,0.00,,---,0.00,VWS V13.01,2013-10-07 08:06:00,
2013-10-07 04:08:00,79.5,74.6,29.88,SSW,202,0.0,0.0,85,0.00,,---,0.00,VWS V13.01,2013-10-07 08:08:00,
2013-10-07 04:09:00,79.5,74.6,29.88,SSW,202,0.0,0.0,85,0.00,,---,0.00,VWS V13.01,2013-10-07 08:09:00,
2013-10-07 04:10:00,79.5,74.6,29.88,SSW,202,0.0,0.0,85,0.00,,---,0.00,VWS V13.01,2013-10-07 08:10:00,
2013-10-07 04:11:00,79.5,74.6,29.88,SSW,202,0.0,0.0,85,0.00,,---,0.00,VWS V13.01,2013-10-07 08:11:00,
2013-10-07 04:12:00,79.5,74.6,29.88,SSW,202,0.0,0.0,85,0.00,,---,0.00,VWS V13.01,2013-10-07 08:12:00,
2013-10-07 04:13:00,79.5,74.6,29.88,SSW,202,0.0,0.0,85,0.00,,---,0.00,VWS V13.01,2013-10-07 08:13:00,
2013-10-07 04:14:00,79.5,74.6,29.89,SSW,202,0.0,0.0,85,0.00,,---,0.00,VWS V13.01,2013-10-07 08:14:00,
2013-10-07 04:15:00,79.5,74.6,29.88,SSW,202,0.0,0.0,85,0.00,,---,0.00,VWS V13.01,2013-10-07 08:15:00,
2013-10-07 04:16:00,79.5,74.6,29.88,SSW,202,0.0,0.0,85,0.00,,---,0.00,VWS V13.01,2013-10-07 08:16:00,
2013-10-07 04:17:00,79.5,74.6,29.88,SSW,202,0.0,0.0,85,0.00,,---,0.00,VWS V13.01,2013-10-07 08:17:00,
2013-10-07 04:18:00,79.5,74.6,29.88,SSW,202,0.0,0.0,85,0.00,,---,0.00,VWS V13.01,2013-10-07 08:18:00,
2013-10-07 04:19:00,79.5,74.6,29.87,SSW,202,0.0,0.0,85,0.00,,---,0.00,VWS V13.01,2013-10-07 08:19:00,
2013-10-07 04:20:00,79.3,74.4,29.87,SSW,202,0.0,0.0,85,0.00,,---,0.00,VWS V13.01,2013-10-07 08:20:00,
2013-10-07 04:21:00,79.5,74.6,29.87,SSW,202,0.0,0.0,85,0.00,,---,0.00,VWS V13.01,2013-10-07 08:21:00,
2013-10-07 04:22:00,79.5,74.6,29.87,SSW,202,0.0,0.0,85,0.00,,---,0.00,VWS V13.01,2013-10-07 08:22:00,
2013-10-07 04:23:00,79.3,74.4,29.87,SSW,202,0.0,0.0,85,0.00,,---,0.00,VWS V13.01,2013-10-07 08:23:00,
2013-10-07 04:24:00,79.3,74.4,29.87,SSW,202,0.0,0.0,85,0.00,,---,0.00,VWS V13.01,2013-10-07 08:24:00,
2013-10-07 04:25:00,79.3,74.4,29.87,SSW,202,0.0,0.0,85,0.00,,---,0.00,VWS V13.01,2013-10-07 08:25:00,
2013-10-07 04:26:00,79.3,74.4,29.87,SSW,202,0.0,0.0,85,0.00,,---,0.00,VWS V13.01,2013-10-07 08:26:00,
2013-10-07 04:27:00,79.3,74.4,29.87,SSW,202,0.0,0.0,85,0.00,,---,0.00,VWS V13.01,2013-10-07 08:27:00,
2013-10-07 04:28:00,79.3,74.4,29.87,SSW,202,0.0,0.0,85,0.00,,---,0.00,VWS V13.01,2013-10-07 08:28:00,
2013-10-07 04:29:00,79.3,74.4,29.88,SSW,202,0.0,0.0,85,0.00,,---,0.00,VWS V13.01,2013-10-07 08:29:00,
2013-10-07 04:30:00,79.3,74.4,29.88,SSW,202,0.0,0.0,85,0.00,,---,0.00,VWS V13.01,2013-10-07 08:30:00,
2013-10-07 04:31:00,79.3,74.4,29.88,SSW,202,1.3,1.3,85,0.00,,---,0.00,VWS V13.01,2013-10-07 08:31:00,
2013-10-07 04:32:00,79.3,74.4,29.88,SSW,202,1.3,1.3,85,0.00,,---,0.00,VWS V13.01,2013-10-07 08:32:00,
2013-10-07 04:33:00,79.3,74.4,29.88,SSW,202,0.0,0.0,85,0.00,,---,0.00,VWS V13.01,2013-10-07 08:33:00,
2013-10-07 04:34:00,79.3,74.4,29.88,SSW,202,0.0,0.0,85,0.00,,---,0.00,VWS V13.01,2013-10-07 08:34:00,
2013-10-07 04:36:00,79.3,74.4,29.87,SSW,202,0.0,0.0,85,0.00,,---,0.00,VWS V13.01,2013-10-07 08:36:00,
2013-10-07 04:37:00,79.3,74.4,29.88,SSW,202,0.0,0.0,85,0.00,,---,0.00,VWS V13.01,2013-10-07 08:37:00,
2013-10-07 04:38:00,79.3,74.4,29.87,SSW,202,0.0,0.0,85,0.00,,---,0.00,VWS V13.01,2013-10-07 08:38:00,
2013-10-07 04:39:00,79.3,74.4,29.88,SSW,202,0.0,0.0,85,0.00,,---,0.00,VWS V13.01,2013-10-07 08:39:00,
2013-10-07 04:41:00,79.3,74.4,29.88,SSW,202,1.3,1.3,85,0.00,,---,0.00,VWS V13.01,2013-10-07 08:41:00,
2013-10-07 04:42:00,79.3,74.4,29.88,South,180,0.0,0.0,85,0.00,,---,0.00,VWS V13.01,2013-10-07 08:42:00,
2013-10-07 04:43:00,79.3,74.4,29.88,South,180,0.0,0.0,85,0.00,,---,0.00,VWS V13.01,2013-10-07 08:43:00,
2013-10-07 04:44:00,79.3,74.4,29.88,South,180,0.0,0.0,85,0.00,,---,0.00,VWS V13.01,2013-10-07 08:44:00,
2013-10-07 04:46:00,79.1,74.2,29.88,South,180,0.0,0.0,85,0.00,,---,0.00,VWS V13.01,2013-10-07 08:46:00,
2013-10-07 04:47:00,79.3,74.4,29.87,South,180,0.0,0.0,85,0.00,,---,0.00,VWS V13.01,2013-10-07 08:47:00,
2013-10-07 04:48:00,79.1,74.2,29.87,SW,225,0.0,0.0,85,0.00,,---,0.00,VWS V13.01,2013-10-07 08:48:00,
2013-10-07 04:49:00,79.1,74.2,29.87,SSW,202,0.0,0.0,85,0.00,,---,0.00,VWS V13.01,2013-10-07 08:49:00,
2013-10-07 04:51:00,79.1,74.2,29.87,South,180,0.0,0.0,85,0.00,,---,0.00,VWS V13.01,2013-10-07 08:51:00,
2013-10-07 04:52:00,79.1,74.2,29.87,South,180,1.1,1.1,85,0.00,,---,0.00,VWS V13.01,2013-10-07 08:52:00,
2013-10-07 04:53:00,79.1,74.2,29.87,SSE,158,1.5,1.5,85,0.00,,---,0.00,VWS V13.01,2013-10-07 08:53:00,
2013-10-07 04:54:00,79.1,74.2,29.87,SSE,158,1.1,1.1,85,0.00,,---,0.00,VWS V13.01,2013-10-07 08:54:00,
2013-10-07 04:56:00,79.1,74.2,29.87,SSE,158,1.1,1.1,85,0.00,,---,0.00,VWS V13.01,2013-10-07 08:56:00,
2013-10-07 04:57:00,79.1,74.2,29.87,South,180,0.0,0.0,85,0.00,,---,0.00,VWS V13.01,2013-10-07 08:57:00,
2013-10-07 04:58:00,79.1,74.2,29.87,South,180,0.0,0.0,85,0.00,,---,0.00,VWS V13.01,2013-10-07 08:58:00,
2013-10-07 04:59:00,79.1,74.2,29.87,SSW,202,0.0,0.0,85,0.00,,---,0.00,VWS V13.01,2013-10-07 08:59:00,
2013-10-07 05:01:00,79.1,74.2,29.87,North,0,0.0,0.0,85,0.00,,---,0.00,VWS V13.01,2013-10-07 09:01:00,
2013-10-07 05:02:00,79.1,74.2,29.87,SW,225,1.5,1.5,85,0.00,,---,0.00,VWS V13.01,2013-10-07 09:02:00,
2013-10-07 05:03:00,79.1,74.2,29.87,SW,225,1.7,1.7,85,0.00,,---,0.00,VWS V13.01,2013-10-07 09:03:00,
2013-10-07 05:05:00,78.9,74.0,29.87,South,180,0.0,0.0,85,0.00,,---,0.00,VWS V13.01,2013-10-07 09:05:00,
2013-10-07 05:06:00,78.9,74.0,29.87,South,180,2.2,2.2,85,0.00,,---,0.00,VWS V13.01,2013-10-07 09:06:00,
2013-10-07 05:07:00,78.9,74.0,29.87,South,180,0.0,0.0,85,0.00,,---,0.00,VWS V13.01,2013-10-07 09:07:00,
2013-10-07 05:08:00,78.9,74.0,29.87,South,180,1.5,1.5,85,0.00,,---,0.00,VWS V13.01,2013-10-07 09:08:00,
2013-10-07 05:10:00,78.9,74.0,29.87,South,180,1.1,1.1,85,0.00,,---,0.00,VWS V13.01,2013-10-07 09:10:00,
2013-10-07 05:11:00,78.9,74.0,29.87,South,180,0.0,0.0,85,0.00,,---,0.00,VWS V13.01,2013-10-07 09:11:00,
2013-10-07 05:12:00,78.9,74.0,29.87,South,180,0.0,0.0,85,0.00,,---,0.00,VWS V13.01,2013-10-07 09:12:00,
2013-10-07 05:13:00,78.9,74.0,29.87,South,180,0.0,0.0,85,0.00,,---,0.00,VWS V13.01,2013-10-07 09:13:00,
2013-10-07 05:15:00,78.9,74.0,29.87,South,180,1.3,1.3,85,0.00,,---,0.00,VWS V13.01,2013-10-07 09:15:00,
2013-10-07 05:17:00,78.9,74.0,29.88,South,180,0.0,0.0,85,0.00,,---,0.00,VWS V13.01,2013-10-07 09:17:00,
2013-10-07 05:18:00,78.9,74.0,29.87,South,180,2.0,2.0,85,0.00,,---,0.00,VWS V13.01,2013-10-07 09:18:00,
2013-10-07 05:20:00,78.9,74.0,29.87,South,180,0.0,0.0,85,0.00,,---,0.00,VWS V13.01,2013-10-07 09:20:00,
2013-10-07 05:22:00,78.9,74.0,29.87,South,180,1.3,1.3,85,0.00,,---,0.00,VWS V13.01,2013-10-07 09:22:00,
2013-10-07 05:23:00,78.9,74.0,29.87,South,180,1.5,1.5,85,0.00,,---,0.00,VWS V13.01,2013-10-07 09:23:00,
2013-10-07 05:25:00,78.9,74.0,29.87,SSE,158,0.0,0.0,85,0.00,,---,0.00,VWS V13.01,2013-10-07 09:25:00,
2013-10-07 05:27:00,78.9,74.0,29.88,SE,135,0.0,0.0,85,0.00,,---,0.00,VWS V13.01,2013-10-07 09:27:00,
2013-10-07 05:28:00,78.9,74.0,29.88,SE,135,0.0,0.0,85,0.00,,---,0.00,VWS V13.01,2013-10-07 09:28:00,
2013-10-07 05:30:00,78.9,74.0,29.88,SSE,158,0.0,0.0,85,0.00,,---,0.00,VWS V13.01,2013-10-07 09:30:00,
2013-10-07 05:32:00,78.9,74.0,29.87,South,180,0.0,0.0,85,0.00,,---,0.00,VWS V13.01,2013-10-07 09:32:00,
2013-10-07 05:33:00,78.9,74.0,29.88,South,180,0.0,0.0,85,0.00,,---,0.00,VWS V13.01,2013-10-07 09:33:00,
2013-10-07 05:34:00,78.9,74.0,29.88,South,180,0.0,0.0,85,0.00,,---,0.00,VWS V13.01,2013-10-07 09:34:00,
2013-10-07 05:35:00,78.9,74.0,29.87,South,180,0.0,0.0,85,0.00,,---,0.00,VWS V13.01,2013-10-07 09:35:00,
2013-10-07 05:37:00,78.9,74.0,29.87,South,180,0.0,0.0,85,0.00,,---,0.00,VWS V13.01,2013-10-07 09:37:00,
2013-10-07 05:38:00,78.9,74.0,29.87,South,180,0.0,0.0,85,0.00,,---,0.00,VWS V13.01,2013-10-07 09:38:00,
2013-10-07 05:39:00,78.9,74.0,29.87,SE,135,0.0,0.0,85,0.00,,---,0.00,VWS V13.01,2013-10-07 09:39:00,
2013-10-07 05:40:00,78.9,74.0,29.87,South,180,2.2,2.2,85,0.00,,---,0.00,VWS V13.01,2013-10-07 09:40:00,
2013-10-07 05:42:00,78.9,74.0,29.87,South,180,0.8,0.8,85,0.00,,---,0.00,VWS V13.01,2013-10-07 09:42:00,
2013-10-07 05:43:00,78.9,74.0,29.87,South,180,0.8,0.8,85,0.00,,---,0.00,VWS V13.01,2013-10-07 09:43:00,
2013-10-07 05:44:00,78.9,74.0,29.88,SSE,158,0.0,0.0,85,0.00,,---,0.00,VWS V13.01,2013-10-07 09:44:00,
2013-10-07 05:45:00,78.9,74.0,29.88,SSE,158,0.0,0.0,85,0.00,,---,0.00,VWS V13.01,2013-10-07 09:45:00,
2013-10-07 05:47:00,78.9,74.0,29.88,South,180,0.0,0.0,85,0.00,,---,0.00,VWS V13.01,2013-10-07 09:47:00,
2013-10-07 05:48:00,78.9,74.0,29.88,SSW,202,0.0,0.0,85,0.00,,---,0.00,VWS V13.01,2013-10-07 09:48:00,
2013-10-07 05:49:00,78.9,74.0,29.88,SSW,202,0.0,0.0,85,0.00,,---,0.00,VWS V13.01,2013-10-07 09:49:00,
2013-10-07 05:50:00,78.9,74.0,29.87,South,180,4.2,4.2,85,0.00,,---,0.00,VWS V13.01,2013-10-07 09:50:00,
2013-10-07 05:52:00,78.9,74.0,29.88,South,180,0.0,0.0,85,0.00,,---,0.00,VWS V13.01,2013-10-07 09:52:00,
2013-10-07 05:53:00,78.9,74.0,29.88,SSE,158,0.0,0.0,85,0.00,,---,0.00,VWS V13.01,2013-10-07 09:53:00,
2013-10-07 05:54:00,78.9,74.0,29.88,SE,135,0.0,0.0,85,0.00,,---,0.00,VWS V13.01,2013-10-07 09:54:00,
2013-10-07 05:55:00,78.9,74.0,29.88,SSE,158,0.0,0.0,85,0.00,,---,0.00,VWS V13.01,2013-10-07 09:55:00,
2013-10-07 05:57:00,78.9,74.0,29.88,North,0,0.0,0.0,85,0.00,,---,0.00,VWS V13.01,2013-10-07 09:57:00,
2013-10-07 05:58:00,78.9,74.0,29.88,North,0,0.0,0.0,85,0.00,,---,0.00,VWS V13.01,2013-10-07 09:58:00,
2013-10-07 05:59:00,78.9,74.0,29.88,SE,135,0.0,2.4,85,0.00,,---,0.00,VWS V13.01,2013-10-07 09:59:00,
2013-10-07 06:00:00,78.9,74.0,29.88,South,180,0.0,0.0,85,0.00,,---,0.00,VWS V13.01,2013-10-07 10:00:00,
2013-10-07 06:02:00,78.9,74.0,29.88,SSE,158,0.0,0.0,85,0.00,,---,0.00,VWS V13.01,2013-10-07 10:02:00,
2013-10-07 06:03:00,78.9,74.0,29.88,SSE,158,0.0,0.0,85,0.00,,---,0.00,VWS V13.01,2013-10-07 10:03:00,
2013-10-07 06:04:00,78.9,74.0,29.88,SSE,158,0.0,0.0,85,0.00,,---,0.00,VWS V13.01,2013-10-07 10:04:00,
2013-10-07 06:05:00,78.9,74.0,29.88,SE,135,0.0,0.0,85,0.00,,---,0.00,VWS V13.01,2013-10-07 10:05:00,
2013-10-07 06:07:00,78.9,74.0,29.88,South,180,0.0,0.0,85,0.00,,---,0.00,VWS V13.01,2013-10-07 10:07:00,
2013-10-07 06:08:00,78.9,74.0,29.88,South,180,0.0,0.0,85,0.00,,---,0.00,VWS V13.01,2013-10-07 10:08:00,
2013-10-07 06:09:00,78.9,74.0,29.88,South,180,2.9,2.9,85,0.00,,---,0.00,VWS V13.01,2013-10-07 10:09:00,
2013-10-07 06:10:00,78.9,74.0,29.88,South,180,1.1,1.1,85,0.00,,---,0.00,VWS V13.01,2013-10-07 10:10:00,
2013-10-07 06:13:00,78.9,74.0,29.88,SSE,158,2.4,2.4,85,0.00,,---,0.00,VWS V13.01,2013-10-07 10:13:00,
2013-10-07 06:14:00,78.9,74.0,29.88,South,180,0.0,0.0,85,0.00,,---,0.00,VWS V13.01,2013-10-07 10:14:00,
2013-10-07 06:15:00,78.9,73.7,29.88,South,180,0.0,0.0,84,0.00,,---,0.00,VWS V13.01,2013-10-07 10:15:00,
2013-10-07 06:18:00,78.9,73.7,29.89,South,180,0.0,0.0,84,0.00,,---,0.00,VWS V13.01,2013-10-07 10:18:00,
2013-10-07 06:19:00,78.9,73.7,29.89,South,180,0.0,0.0,84,0.00,,---,0.00,VWS V13.01,2013-10-07 10:19:00,
2013-10-07 06:20:00,78.9,73.7,29.89,SSW,202,2.4,2.4,84,0.00,,---,0.00,VWS V13.01,2013-10-07 10:20:00,
2013-10-07 06:23:00,78.9,73.7,29.89,South,180,2.6,2.6,84,0.00,,---,0.00,VWS V13.01,2013-10-07 10:23:00,
2013-10-07 06:24:00,78.9,73.7,29.89,South,180,0.0,0.0,84,0.00,,---,0.00,VWS V13.01,2013-10-07 10:24:00,
2013-10-07 06:25:00,78.9,73.7,29.89,SSE,158,0.0,0.0,84,0.00,,---,0.00,VWS V13.01,2013-10-07 10:25:00,
2013-10-07 06:28:00,78.9,73.7,29.88,South,180,1.3,1.3,84,0.00,,---,0.00,VWS V13.01,2013-10-07 10:28:00,
2013-10-07 06:29:00,78.9,73.7,29.89,South,180,0.0,0.0,84,0.00,,---,0.00,VWS V13.01,2013-10-07 10:29:00,
2013-10-07 06:30:00,78.9,73.7,29.89,South,180,0.6,0.6,84,0.00,,---,0.00,VWS V13.01,2013-10-07 10:30:00,
2013-10-07 06:33:00,78.9,73.7,29.89,SE,135,1.5,1.5,84,0.00,,---,0.00,VWS V13.01,2013-10-07 10:33:00,
2013-10-07 06:34:00,78.9,73.7,29.89,SE,135,1.5,1.5,84,0.00,,---,0.00,VWS V13.01,2013-10-07 10:34:00,
2013-10-07 06:35:00,78.9,73.7,29.89,South,180,2.4,2.4,84,0.00,,---,0.00,VWS V13.01,2013-10-07 10:35:00,
2013-10-07 06:38:00,78.9,73.7,29.89,ESE,112,0.0,0.0,84,0.00,,---,0.00,VWS V13.01,2013-10-07 10:38:00,
2013-10-07 06:39:00,78.9,73.7,29.89,South,180,1.3,1.3,84,0.00,,---,0.00,VWS V13.01,2013-10-07 10:39:00,
2013-10-07 06:40:00,78.9,73.7,29.89,South,180,0.0,0.0,84,0.00,,---,0.00,VWS V13.01,2013-10-07 10:40:00,
2013-10-07 06:43:00,78.9,73.7,29.89,SSE,158,0.8,0.8,84,0.00,,---,0.00,VWS V13.01,2013-10-07 10:43:00,
2013-10-07 06:44:00,79.1,73.8,29.89,South,180,3.8,3.8,84,0.00,,---,0.00,VWS V13.01,2013-10-07 10:44:00,
2013-10-07 06:45:00,79.1,73.8,29.89,South,180,3.8,3.8,84,0.00,,---,0.00,VWS V13.01,2013-10-07 10:45:00,
2013-10-07 06:48:00,79.1,73.8,29.90,SSE,158,1.3,1.3,84,0.00,,---,0.00,VWS V13.01,2013-10-07 10:48:00,
2013-10-07 06:49:00,79.1,73.8,29.90,SSW,202,5.1,5.1,84,0.00,,---,0.00,VWS V13.01,2013-10-07 10:49:00,
2013-10-07 06:50:00,79.1,73.8,29.90,SSW,202,5.1,5.1,84,0.00,,---,0.00,VWS V13.01,2013-10-07 10:50:00,
2013-10-07 06:53:00,79.3,74.1,29.89,ESE,112,0.0,0.0,84,0.00,,---,0.00,VWS V13.01,2013-10-07 10:53:00,
2013-10-07 06:54:00,79.3,74.1,29.90,SSE,158,1.5,1.5,84,0.00,,---,0.00,VWS V13.01,2013-10-07 10:54:00,
2013-10-07 06:55:00,79.3,74.1,29.90,SW,225,2.0,2.0,84,0.00,,---,0.00,VWS V13.01,2013-10-07 10:55:00,
2013-10-07 06:58:00,79.3,74.1,29.90,South,180,2.2,2.2,84,0.00,,---,0.00,VWS V13.01,2013-10-07 10:58:00,
2013-10-07 06:59:00,79.5,74.2,29.90,SE,135,1.7,1.7,84,0.00,,---,0.00,VWS V13.01,2013-10-07 10:59:00,
2013-10-07 07:00:00,79.5,74.2,29.90,South,180,3.8,3.8,84,0.00,,---,0.00,VWS V13.01,2013-10-07 11:00:00,
2013-10-07 07:01:00,79.5,74.2,29.90,South,180,3.8,3.8,84,0.00,,---,0.00,VWS V13.01,2013-10-07 11:01:00,
2013-10-07 07:03:00,79.5,74.2,29.90,South,180,0.6,0.6,84,0.00,,---,0.00,VWS V13.01,2013-10-07 11:03:00,
2013-10-07 07:04:00,79.5,74.2,29.90,South,180,0.6,0.6,84,0.00,,---,0.00,VWS V13.01,2013-10-07 11:04:00,
2013-10-07 07:05:00,79.5,74.2,29.90,South,180,2.0,2.0,84,0.00,,---,0.00,VWS V13.01,2013-10-07 11:05:00,
2013-10-07 07:06:00,79.5,74.2,29.90,South,180,2.0,2.0,84,0.00,,---,0.00,VWS V13.01,2013-10-07 11:06:00,
2013-10-07 07:08:00,79.7,74.4,29.90,SSE,158,4.4,4.4,84,0.00,,---,0.00,VWS V13.01,2013-10-07 11:08:00,
2013-10-07 07:09:00,79.7,74.4,29.90,SSE,158,4.4,4.4,84,0.00,,---,0.00,VWS V13.01,2013-10-07 11:09:00,
2013-10-07 07:10:00,79.7,74.4,29.90,South,180,2.6,2.6,84,0.00,,---,0.00,VWS V13.01,2013-10-07 11:10:00,
2013-10-07 07:11:00,79.7,74.4,29.90,South,180,2.6,2.6,84,0.00,,---,0.00,VWS V13.01,2013-10-07 11:11:00,
2013-10-07 07:14:00,79.8,74.5,29.91,SE,135,0.0,0.0,84,0.00,,---,0.00,VWS V13.01,2013-10-07 11:14:00,
2013-10-07 07:15:00,79.8,74.5,29.91,South,180,1.3,1.3,84,0.00,,---,0.00,VWS V13.01,2013-10-07 11:15:00,
2013-10-07 07:16:00,79.8,74.5,29.91,South,180,1.3,1.3,84,0.00,,---,0.00,VWS V13.01,2013-10-07 11:16:00,
2013-10-07 07:19:00,79.8,74.5,29.91,SSE,158,1.5,1.5,84,0.00,,---,0.00,VWS V13.01,2013-10-07 11:19:00,
2013-10-07 07:20:00,80.0,74.7,29.91,SSE,158,3.8,3.8,84,0.00,,---,0.00,VWS V13.01,2013-10-07 11:20:00,
2013-10-07 07:21:00,80.2,74.9,29.91,South,180,3.8,3.8,84,0.00,,---,0.00,VWS V13.01,2013-10-07 11:21:00,
2013-10-07 07:24:00,80.2,74.6,29.91,South,180,3.1,3.1,83,0.00,,---,0.00,VWS V13.01,2013-10-07 11:24:00,
2013-10-07 07:25:00,80.2,74.6,29.91,North,0,0.0,0.0,83,0.00,,---,0.00,VWS V13.01,2013-10-07 11:25:00,
2013-10-07 07:26:00,80.2,74.6,29.91,SSE,158,4.6,4.6,83,0.00,,---,0.00,VWS V13.01,2013-10-07 11:26:00,
2013-10-07 07:29:00,80.4,74.8,29.91,SSW,202,2.4,2.4,83,0.00,,---,0.00,VWS V13.01,2013-10-07 11:29:00,
2013-10-07 07:30:00,80.4,74.8,29.91,South,180,4.6,4.6,83,0.00,,---,0.00,VWS V13.01,2013-10-07 11:30:00,
2013-10-07 07:31:00,80.4,74.8,29.91,SE,135,2.6,2.6,83,0.00,,---,0.00,VWS V13.01,2013-10-07 11:31:00,
2013-10-07 07:34:00,80.7,75.1,29.91,SSE,158,3.8,3.8,83,0.00,,---,0.00,VWS V13.01,2013-10-07 11:34:00,
2013-10-07 07:35:00,80.7,75.1,29.91,SSE,158,3.8,3.8,83,0.00,,---,0.00,VWS V13.01,2013-10-07 11:35:00,
2013-10-07 07:36:00,80.7,75.1,29.91,South,180,7.6,7.6,83,0.00,,---,0.00,VWS V13.01,2013-10-07 11:36:00,
2013-10-07 07:39:00,80.9,75.3,29.91,SSE,158,3.1,3.1,83,0.00,,---,0.00,VWS V13.01,2013-10-07 11:39:00,
2013-10-07 07:40:00,80.9,75.3,29.91,SSE,158,3.1,3.1,83,0.00,,---,0.00,VWS V13.01,2013-10-07 11:40:00,
2013-10-07 07:41:00,80.9,74.9,29.91,South,180,2.0,2.0,82,0.00,,---,0.00,VWS V13.01,2013-10-07 11:41:00,
2013-10-07 07:44:00,81.1,75.1,29.91,South,180,2.4,2.4,82,0.00,,---,0.00,VWS V13.01,2013-10-07 11:44:00,
2013-10-07 07:45:00,81.1,75.1,29.91,South,180,2.4,2.4,82,0.00,,---,0.00,VWS V13.01,2013-10-07 11:45:00,
2013-10-07 07:46:00,81.1,75.1,29.92,SSE,158,2.9,2.9,82,0.00,,---,0.00,VWS V13.01,2013-10-07 11:46:00,
2013-10-07 07:49:00,81.3,75.3,29.91,SSE,158,2.4,2.4,82,0.00,,---,0.00,VWS V13.01,2013-10-07 11:49:00,
2013-10-07 07:50:00,81.3,75.3,29.91,SSE,158,2.4,2.4,82,0.00,,---,0.00,VWS V13.01,2013-10-07 11:50:00,
2013-10-07 07:51:00,81.5,75.5,29.91,South,180,5.1,5.1,82,0.00,,---,0.00,VWS V13.01,2013-10-07 11:51:00,
2013-10-07 07:54:00,81.6,75.2,29.92,SE,135,1.1,1.1,81,0.00,,---,0.00,VWS V13.01,2013-10-07 11:54:00,
2013-10-07 07:55:00,81.6,75.2,29.92,SE,135,1.1,1.1,81,0.00,,---,0.00,VWS V13.01,2013-10-07 11:55:00,
2013-10-07 07:56:00,81.6,75.2,29.92,SE,135,2.0,2.0,81,0.00,,---,0.00,VWS V13.01,2013-10-07 11:56:00,
2013-10-07 07:59:00,81.6,75.2,29.92,WSW,248,0.0,0.0,81,0.00,,---,0.00,VWS V13.01,2013-10-07 11:59:00,
2013-10-07 08:00:00,81.6,75.2,29.92,WSW,248,0.0,0.0,81,0.00,,---,0.00,VWS V13.01,2013-10-07 12:00:00,
2013-10-07 08:01:00,82.0,75.6,29.91,South,180,4.2,4.2,81,0.00,,---,0.00,VWS V13.01,2013-10-07 12:01:00,
2013-10-07 08:02:00,82.0,75.6,29.91,South,180,6.9,6.9,81,0.00,,---,0.00,VWS V13.01,2013-10-07 12:02:00,
2013-10-07 08:04:00,82.2,75.8,29.92,SSW,202,4.6,4.6,81,0.00,,---,0.00,VWS V13.01,2013-10-07 12:04:00,
2013-10-07 08:05:00,82.0,75.6,29.92,SSE,158,3.5,3.5,81,0.00,,---,0.00,VWS V13.01,2013-10-07 12:05:00,
2013-10-07 08:06:00,82.0,75.6,29.92,SSE,158,3.5,3.5,81,0.00,,---,0.00,VWS V13.01,2013-10-07 12:06:00,
2013-10-07 08:07:00,82.2,75.4,29.92,SSE,158,6.0,6.0,80,0.00,,---,0.00,VWS V13.01,2013-10-07 12:07:00,
2013-10-07 08:09:00,82.2,75.4,29.92,South,180,2.9,2.9,80,0.00,,---,0.00,VWS V13.01,2013-10-07 12:09:00,
2013-10-07 08:10:00,82.2,75.4,29.92,SSE,158,0.0,0.0,80,0.00,,---,0.00,VWS V13.01,2013-10-07 12:10:00,
2013-10-07 08:11:00,82.2,75.4,29.92,SSE,158,0.0,0.0,80,0.00,,---,0.00,VWS V13.01,2013-10-07 12:11:00,
2013-10-07 08:12:00,82.5,75.7,29.92,South,180,4.4,4.4,80,0.00,,---,0.00,VWS V13.01,2013-10-07 12:12:00,
2013-10-07 08:14:00,82.5,75.7,29.92,SE,135,2.2,2.2,80,0.00,,---,0.00,VWS V13.01,2013-10-07 12:14:00,
2013-10-07 08:15:00,82.5,75.7,29.92,SE,135,4.0,4.0,80,0.00,,---,0.00,VWS V13.01,2013-10-07 12:15:00,
2013-10-07 08:16:00,82.5,75.7,29.92,SE,135,4.0,4.0,80,0.00,,---,0.00,VWS V13.01,2013-10-07 12:16:00,
2013-10-07 08:17:00,82.5,75.7,29.92,SSW,202,4.4,4.4,80,0.00,,---,0.00,VWS V13.01,2013-10-07 12:17:00,
2013-10-07 08:19:00,82.9,75.7,29.92,SE,135,1.5,1.5,79,0.00,,---,0.00,VWS V13.01,2013-10-07 12:19:00,
2013-10-07 08:20:00,82.9,75.7,29.93,South,180,2.4,2.4,79,0.00,,---,0.00,VWS V13.01,2013-10-07 12:20:00,
2013-10-07 08:21:00,82.9,75.7,29.93,South,180,2.4,2.4,79,0.00,,---,0.00,VWS V13.01,2013-10-07 12:21:00,
2013-10-07 08:22:00,82.9,75.7,29.93,SE,135,2.4,2.4,79,0.00,,---,0.00,VWS V13.01,2013-10-07 12:22:00,
2013-10-07 08:24:00,82.9,75.7,29.93,SSE,158,1.7,1.7,79,0.00,,---,0.00,VWS V13.01,2013-10-07 12:24:00,
2013-10-07 08:25:00,83.1,75.9,29.93,SSE,158,3.8,3.8,79,0.00,,---,0.00,VWS V13.01,2013-10-07 12:25:00,
2013-10-07 08:26:00,83.1,75.9,29.93,SSE,158,3.8,3.8,79,0.00,,---,0.00,VWS V13.01,2013-10-07 12:26:00,
2013-10-07 08:27:00,83.1,75.9,29.93,South,180,6.0,6.0,79,0.00,,---,0.00,VWS V13.01,2013-10-07 12:27:00,
2013-10-07 08:29:00,83.1,75.9,29.93,SE,135,8.0,8.0,79,0.00,,---,0.00,VWS V13.01,2013-10-07 12:29:00,
2013-10-07 08:30:00,83.3,76.1,29.92,South,180,1.7,1.7,79,0.00,,---,0.00,VWS V13.01,2013-10-07 12:30:00,
2013-10-07 08:31:00,83.3,76.1,29.92,South,180,1.7,1.7,79,0.00,,---,0.00,VWS V13.01,2013-10-07 12:31:00,
2013-10-07 08:32:00,83.4,76.2,29.93,SE,135,2.4,2.4,79,0.00,,---,0.00,VWS V13.01,2013-10-07 12:32:00,
2013-10-07 08:34:00,83.4,75.8,29.93,SSE,158,4.6,4.6,78,0.00,,---,0.00,VWS V13.01,2013-10-07 12:34:00,
2013-10-07 08:35:00,83.4,75.8,29.93,SE,135,4.0,4.0,78,0.00,,---,0.00,VWS V13.01,2013-10-07 12:35:00,
2013-10-07 08:36:00,83.4,75.8,29.93,ESE,112,0.8,0.8,78,0.00,,---,0.00,VWS V13.01,2013-10-07 12:36:00,
2013-10-07 08:37:00,83.6,76.0,29.93,SSE,158,2.6,2.6,78,0.00,,---,0.00,VWS V13.01,2013-10-07 12:37:00,
2013-10-07 08:39:00,83.8,76.2,29.93,SSE,158,1.1,1.1,78,0.00,,---,0.00,VWS V13.01,2013-10-07 12:39:00,
2013-10-07 08:40:00,83.8,76.2,29.93,East,90,2.2,2.2,78,0.00,,---,0.00,VWS V13.01,2013-10-07 12:40:00,
2013-10-07 08:41:00,83.8,76.2,29.93,South,180,4.6,4.6,78,0.00,,---,0.00,VWS V13.01,2013-10-07 12:41:00,
2013-10-07 08:42:00,83.8,76.2,29.93,South,180,4.6,4.6,78,0.00,,---,0.00,VWS V13.01,2013-10-07 12:42:00,
2013-10-07 08:45:00,84.0,76.0,29.93,SE,135,2.2,2.2,77,0.00,,---,0.00,VWS V13.01,2013-10-07 12:45:00,
2013-10-07 08:46:00,84.0,76.0,29.93,ESE,112,0.0,0.0,77,0.00,,---,0.00,VWS V13.01,2013-10-07 12:46:00,
2013-10-07 08:47:00,84.0,76.0,29.93,ESE,112,0.0,0.0,77,0.00,,---,0.00,VWS V13.01,2013-10-07 12:47:00,
2013-10-07 08:50:00,84.0,76.0,29.93,SSE,158,0.0,0.0,77,0.00,,---,0.00,VWS V13.01,2013-10-07 12:50:00,
2013-10-07 08:51:00,84.3,76.3,29.93,SE,135,3.3,3.3,77,0.00,,---,0.00,VWS V13.01,2013-10-07 12:51:00,
2013-10-07 08:52:00,84.3,76.3,29.93,SE,135,3.3,3.3,77,0.00,,---,0.00,VWS V13.01,2013-10-07 12:52:00,
2013-10-07 08:55:00,84.3,76.3,29.93,South,180,0.0,0.0,77,0.00,,---,0.00,VWS V13.01,2013-10-07 12:55:00,
2013-10-07 08:56:00,84.5,76.5,29.93,SE,135,1.3,1.3,77,0.00,,---,0.00,VWS V13.01,2013-10-07 12:56:00,
2013-10-07 08:57:00,84.5,76.5,29.93,SE,135,1.3,1.3,77,0.00,,---,0.00,VWS V13.01,2013-10-07 12:57:00,
2013-10-07 09:00:00,84.7,76.7,29.93,SE,135,3.5,3.5,77,0.00,,---,0.00,VWS V13.01,2013-10-07 13:00:00,
2013-10-07 09:02:00,84.7,76.7,29.93,SE,135,1.1,1.1,77,0.00,,---,0.00,VWS V13.01,2013-10-07 13:02:00,
2013-10-07 09:05:00,84.7,76.7,29.93,SE,135,1.5,1.5,77,0.00,,---,0.00,VWS V13.01,2013-10-07 13:05:00,
2013-10-07 09:06:00,84.7,76.7,29.93,SSE,158,1.3,1.3,77,0.00,,---,0.00,VWS V13.01,2013-10-07 13:06:00,
2013-10-07 09:07:00,84.7,76.7,29.93,SE,135,4.4,4.4,77,0.00,,---,0.00,VWS V13.01,2013-10-07 13:07:00,
2013-10-07 09:10:00,84.9,76.5,29.93,ESE,112,0.0,0.0,76,0.00,,---,0.00,VWS V13.01,2013-10-07 13:10:00,
2013-10-07 09:11:00,84.9,76.5,29.93,NE,45,2.0,2.0,76,0.00,,---,0.00,VWS V13.01,2013-10-07 13:11:00,
2013-10-07 09:12:00,84.9,76.5,29.93,SE,135,0.6,0.6,76,0.00,,---,0.00,VWS V13.01,2013-10-07 13:12:00,
2013-10-07 09:15:00,85.2,76.8,29.93,ESE,112,0.8,0.8,76,0.00,,---,0.00,VWS V13.01,2013-10-07 13:15:00,
2013-10-07 09:16:00,85.2,76.8,29.93,ESE,112,0.8,0.8,76,0.00,,---,0.00,VWS V13.01,2013-10-07 13:16:00,
2013-10-07 09:17:00,85.2,76.8,29.93,East,90,2.4,2.4,76,0.00,,---,0.00,VWS V13.01,2013-10-07 13:17:00,
2013-10-07 09:20:00,85.4,76.6,29.93,ENE,68,4.4,4.4,75,0.00,,---,0.00,VWS V13.01,2013-10-07 13:20:00,
2013-10-07 09:21:00,85.4,76.6,29.93,ENE,68,4.4,4.4,75,0.00,,---,0.00,VWS V13.01,2013-10-07 13:21:00,
2013-10-07 09:22:00,85.6,76.8,29.93,ENE,68,4.6,4.6,75,0.00,,---,0.00,VWS V13.01,2013-10-07 13:22:00,
2013-10-07 09:25:00,85.6,76.8,29.93,ENE,68,4.4,4.4,75,0.00,,---,0.00,VWS V13.01,2013-10-07 13:25:00,
2013-10-07 09:26:00,85.6,76.8,29.93,ENE,68,4.4,4.4,75,0.00,,---,0.00,VWS V13.01,2013-10-07 13:26:00,
2013-10-07 09:27:00,85.8,77.0,29.93,ESE,112,4.6,4.6,75,0.00,,---,0.00,VWS V13.01,2013-10-07 13:27:00,
2013-10-07 09:28:00,85.8,77.0,29.93,ESE,112,4.6,4.6,75,0.00,,---,0.00,VWS V13.01,2013-10-07 13:28:00,
2013-10-07 09:30:00,85.8,77.0,29.93,ENE,68,4.6,4.6,75,0.00,,---,0.00,VWS V13.01,2013-10-07 13:30:00,
2013-10-07 09:31:00,85.6,76.8,29.93,NNE,22,0.0,0.0,75,0.00,,---,0.00,VWS V13.01,2013-10-07 13:31:00,
2013-10-07 09:32:00,85.8,77.0,29.93,ENE,68,4.2,4.2,75,0.00,,---,0.00,VWS V13.01,2013-10-07 13:32:00,
2013-10-07 09:33:00,85.8,77.0,29.93,ENE,68,4.2,4.2,75,0.00,,---,0.00,VWS V13.01,2013-10-07 13:33:00,
2013-10-07 09:35:00,85.8,76.6,29.93,ENE,68,0.0,0.0,74,0.00,,---,0.00,VWS V13.01,2013-10-07 13:35:00,
2013-10-07 09:36:00,85.8,76.6,29.93,NE,45,5.1,5.1,74,0.00,,---,0.00,VWS V13.01,2013-10-07 13:36:00,
2013-10-07 09:37:00,85.8,76.6,29.93,East,90,1.1,1.1,74,0.00,,---,0.00,VWS V13.01,2013-10-07 13:37:00,
2013-10-07 09:38:00,85.8,76.6,29.93,East,90,2.2,2.2,74,0.00,,---,0.00,VWS V13.01,2013-10-07 13:38:00,
2013-10-07 09:40:00,85.8,76.6,29.93,NE,45,1.5,1.5,74,0.00,,---,0.00,VWS V13.01,2013-10-07 13:40:00,
2013-10-07 09:41:00,85.8,76.6,29.93,ENE,68,3.5,3.5,74,0.00,,---,0.00,VWS V13.01,2013-10-07 13:41:00,
2013-10-07 09:42:00,85.8,76.6,29.93,NNE,22,4.6,4.6,74,0.00,,---,0.00,VWS V13.01,2013-10-07 13:42:00,
2013-10-07 09:43:00,85.8,76.6,29.93,NNE,22,4.6,4.6,74,0.00,,---,0.00,VWS V13.01,2013-10-07 13:43:00,
2013-10-07 09:45:00,85.8,76.6,29.93,NE,45,5.5,5.5,74,0.00,,---,0.00,VWS V13.01,2013-10-07 13:45:00,
2013-10-07 09:46:00,85.8,76.6,29.93,ENE,68,4.4,4.4,74,0.00,,---,0.00,VWS V13.01,2013-10-07 13:46:00,
2013-10-07 09:47:00,85.8,76.6,29.92,East,90,1.1,1.1,74,0.00,,---,0.00,VWS V13.01,2013-10-07 13:47:00,
2013-10-07 09:48:00,85.8,76.6,29.92,East,90,1.1,1.1,74,0.00,,---,0.00,VWS V13.01,2013-10-07 13:48:00,
2013-10-07 09:49:00,85.8,76.6,29.93,East,90,4.0,4.0,74,0.00,,---,0.00,VWS V13.01,2013-10-07 13:49:00,
2013-10-07 09:50:00,85.8,76.6,29.93,East,90,0.0,0.0,74,0.00,,---,0.00,VWS V13.01,2013-10-07 13:50:00,
2013-10-07 09:51:00,86.0,76.8,29.93,ENE,68,5.5,5.5,74,0.00,,---,0.00,VWS V13.01,2013-10-07 13:51:00,
2013-10-07 09:53:00,86.1,76.8,29.93,NE,45,4.4,4.4,74,0.00,,---,0.00,VWS V13.01,2013-10-07 13:53:00,
2013-10-07 09:54:00,86.1,76.4,29.93,NE,45,3.8,3.8,73,0.00,,---,0.00,VWS V13.01,2013-10-07 13:54:00,
2013-10-07 09:55:00,86.1,76.4,29.93,ENE,68,0.8,0.8,73,0.00,,---,0.00,VWS V13.01,2013-10-07 13:55:00,
2013-10-07 09:56:00,86.1,76.4,29.93,ENE,68,1.5,1.5,73,0.00,,---,0.00,VWS V13.01,2013-10-07 13:56:00,
2013-10-07 09:58:00,86.1,76.4,29.93,ENE,68,1.1,1.1,73,0.00,,---,0.00,VWS V13.01,2013-10-07 13:58:00,
2013-10-07 09:59:00,86.1,76.4,29.93,SE,135,0.0,0.0,73,0.00,,---,0.00,VWS V13.01,2013-10-07 13:59:00,
2013-10-07 10:00:00,86.3,76.6,29.94,East,90,3.3,3.3,73,0.00,,---,0.00,VWS V13.01,2013-10-07 14:00:00,
2013-10-07 10:01:00,86.3,76.6,29.94,NNE,22,2.0,2.0,73,0.00,,---,0.00,VWS V13.01,2013-10-07 14:01:00,
2013-10-07 10:03:00,86.3,76.6,29.93,NNE,22,4.0,4.0,73,0.00,,---,0.00,VWS V13.01,2013-10-07 14:03:00,
2013-10-07 10:04:00,86.3,76.6,29.93,East,90,2.4,2.4,73,0.00,,---,0.00,VWS V13.01,2013-10-07 14:04:00,
2013-10-07 10:05:00,86.3,76.6,29.93,ENE,68,5.5,5.5,73,0.00,,---,0.00,VWS V13.01,2013-10-07 14:05:00,
2013-10-07 10:06:00,86.3,76.6,29.93,ENE,68,4.6,4.6,73,0.00,,---,0.00,VWS V13.01,2013-10-07 14:06:00,
2013-10-07 10:08:00,86.3,76.6,29.93,North,0,0.6,0.6,73,0.00,,---,0.00,VWS V13.01,2013-10-07 14:08:00,
2013-10-07 10:10:00,86.5,76.8,29.93,NE,45,4.4,4.4,73,0.00,,---,0.00,VWS V13.01,2013-10-07 14:10:00,
2013-10-07 10:11:00,86.5,76.8,29.93,NE,45,3.5,3.5,73,0.00,,---,0.00,VWS V13.01,2013-10-07 14:11:00,
2013-10-07 10:13:00,86.5,76.8,29.93,ESE,112,4.0,4.0,73,0.00,,---,0.00,VWS V13.01,2013-10-07 14:13:00,
2013-10-07 10:15:00,86.5,76.8,29.93,NNE,22,4.4,4.4,73,0.00,,---,0.00,VWS V13.01,2013-10-07 14:15:00,
2013-10-07 10:16:00,86.5,76.8,29.93,North,0,0.8,0.8,73,0.00,,---,0.00,VWS V13.01,2013-10-07 14:16:00,
2013-10-07 10:18:00,86.5,76.8,29.93,ESE,112,1.3,1.3,73,0.00,,---,0.00,VWS V13.01,2013-10-07 14:18:00,
2013-10-07 10:19:00,86.5,76.8,29.93,ESE,112,1.3,1.3,73,0.00,,---,0.00,VWS V13.01,2013-10-07 14:19:00,
2013-10-07 10:20:00,86.5,76.8,29.93,ESE,112,6.0,6.0,73,0.00,,---,0.00,VWS V13.01,2013-10-07 14:20:00,
2013-10-07 10:21:00,86.5,76.8,29.93,ENE,68,4.4,4.4,73,0.00,,---,0.00,VWS V13.01,2013-10-07 14:21:00,
2013-10-07 10:23:00,86.7,77.0,29.93,ENE,68,5.8,5.8,73,0.00,,---,0.00,VWS V13.01,2013-10-07 14:23:00,
2013-10-07 10:24:00,86.7,77.0,29.93,ENE,68,5.8,5.8,73,0.00,,---,0.00,VWS V13.01,2013-10-07 14:24:00,
2013-10-07 10:25:00,86.7,77.0,29.93,East,90,7.3,7.3,73,0.00,,---,0.00,VWS V13.01,2013-10-07 14:25:00,
2013-10-07 10:26:00,86.9,77.2,29.93,East,90,6.9,6.9,73,0.00,,---,0.00,VWS V13.01,2013-10-07 14:26:00,
2013-10-07 10:28:00,87.0,77.3,29.93,ENE,68,3.5,3.5,73,0.00,,---,0.00,VWS V13.01,2013-10-07 14:28:00,
2013-10-07 10:29:00,87.0,77.3,29.93,ENE,68,3.5,3.5,73,0.00,,---,0.00,VWS V13.01,2013-10-07 14:29:00,
2013-10-07 10:30:00,87.4,77.7,29.93,ENE,68,7.8,7.8,73,0.00,,---,0.00,VWS V13.01,2013-10-07 14:30:00,
2013-10-07 10:31:00,87.4,77.7,29.93,ENE,68,7.8,7.8,73,0.00,,---,0.00,VWS V13.01,2013-10-07 14:31:00,
2013-10-07 10:33:00,87.4,77.7,29.92,ENE,68,1.1,1.1,73,0.00,,---,0.00,VWS V13.01,2013-10-07 14:33:00,
2013-10-07 10:34:00,87.4,77.7,29.92,ENE,68,1.1,1.1,73,0.00,,---,0.00,VWS V13.01,2013-10-07 14:34:00,
2013-10-07 10:35:00,87.6,77.9,29.92,ENE,68,5.3,5.3,73,0.00,,---,0.00,VWS V13.01,2013-10-07 14:35:00,
2013-10-07 10:36:00,87.6,77.9,29.92,ENE,68,5.3,5.3,73,0.00,,---,0.00,VWS V13.01,2013-10-07 14:36:00,
2013-10-07 10:38:00,87.4,77.3,29.93,ESE,112,4.6,4.6,72,0.00,,---,0.00,VWS V13.01,2013-10-07 14:38:00,
2013-10-07 10:39:00,87.4,77.3,29.93,ESE,112,4.6,4.6,72,0.00,,---,0.00,VWS V13.01,2013-10-07 14:39:00,
2013-10-07 10:40:00,87.4,77.7,29.93,East,90,4.9,4.9,73,0.00,,---,0.00,VWS V13.01,2013-10-07 14:40:00,
2013-10-07 10:41:00,87.4,77.7,29.93,East,90,4.9,4.9,73,0.00,,---,0.00,VWS V13.01,2013-10-07 14:41:00,
2013-10-07 10:44:00,87.4,77.3,29.92,ENE,68,6.2,6.2,72,0.00,,---,0.00,VWS V13.01,2013-10-07 14:44:00,
2013-10-07 10:45:00,87.6,77.5,29.93,ENE,68,6.0,6.0,72,0.00,,---,0.00,VWS V13.01,2013-10-07 14:45:00,
2013-10-07 10:46:00,87.6,77.5,29.93,ENE,68,6.0,6.0,72,0.00,,---,0.00,VWS V13.01,2013-10-07 14:46:00,
2013-10-07 10:47:00,87.6,77.5,29.93,ENE,68,0.8,0.8,72,0.00,,---,0.00,VWS V13.01,2013-10-07 14:47:00,
2013-10-07 10:49:00,87.6,77.5,29.92,East,90,5.8,5.8,72,0.00,,---,0.00,VWS V13.01,2013-10-07 14:49:00,
2013-10-07 10:50:00,87.8,77.7,29.92,NE,45,1.5,1.5,72,0.00,,---,0.00,VWS V13.01,2013-10-07 14:50:00,
2013-10-07 10:51:00,87.8,77.7,29.92,ENE,68,8.0,8.0,72,0.00,,---,0.00,VWS V13.01,2013-10-07 14:51:00,
2013-10-07 10:52:00,87.8,77.7,29.92,ENE,68,8.0,8.0,72,0.00,,---,0.00,VWS V13.01,2013-10-07 14:52:00,
2013-10-07 10:54:00,87.8,77.7,29.92,East,90,8.0,8.0,72,0.00,,---,0.00,VWS V13.01,2013-10-07 14:54:00,
2013-10-07 10:55:00,87.8,77.7,29.92,East,90,6.7,6.7,72,0.00,,---,0.00,VWS V13.01,2013-10-07 14:55:00,
2013-10-07 10:56:00,87.8,77.7,29.92,East,90,6.7,6.7,72,0.00,,---,0.00,VWS V13.01,2013-10-07 14:56:00,
2013-10-07 10:57:00,87.8,77.7,29.92,ENE,68,1.5,1.5,72,0.00,,---,0.00,VWS V13.01,2013-10-07 14:57:00,
2013-10-07 10:59:00,87.8,77.7,29.92,NE,45,4.2,4.2,72,0.00,,---,0.00,VWS V13.01,2013-10-07 14:59:00,
2013-10-07 11:00:00,87.8,77.7,29.92,NE,45,4.0,5.8,72,0.00,,---,0.00,VWS V13.01,2013-10-07 15:00:00,
2013-10-07 11:01:00,87.8,77.7,29.92,NE,45,4.0,4.0,72,0.00,,---,0.00,VWS V13.01,2013-10-07 15:01:00,
2013-10-07 11:02:00,87.9,77.8,29.92,ENE,68,7.8,7.8,72,0.00,,---,0.00,VWS V13.01,2013-10-07 15:02:00,
2013-10-07 11:04:00,87.9,77.8,29.92,ENE,68,6.2,6.2,72,0.00,,---,0.00,VWS V13.01,2013-10-07 15:04:00,
2013-10-07 11:05:00,87.9,77.8,29.92,ESE,112,2.0,2.0,72,0.00,,---,0.00,VWS V13.01,2013-10-07 15:05:00,
2013-10-07 11:06:00,88.1,77.9,29.92,ENE,68,5.8,5.8,72,0.00,,---,0.00,VWS V13.01,2013-10-07 15:06:00,
2013-10-07 11:07:00,88.1,77.9,29.92,ENE,68,3.5,3.5,72,0.00,,---,0.00,VWS V13.01,2013-10-07 15:07:00,
2013-10-07 11:09:00,88.3,78.1,29.92,ENE,68,5.3,5.3,72,0.00,,---,0.00,VWS V13.01,2013-10-07 15:09:00,
2013-10-07 11:10:00,88.3,78.1,29.91,ENE,68,1.7,1.7,72,0.00,,---,0.00,VWS V13.01,2013-10-07 15:10:00,
2013-10-07 11:11:00,88.3,78.1,29.92,East,90,6.7,6.7,72,0.00,,---,0.00,VWS V13.01,2013-10-07 15:11:00,
2013-10-07 11:12:00,88.3,78.1,29.91,East,90,1.7,1.7,72,0.00,,---,0.00,VWS V13.01,2013-10-07 15:12:00,
2013-10-07 11:14:00,88.3,78.1,29.91,ENE,68,7.3,7.3,72,0.00,,---,0.00,VWS V13.01,2013-10-07 15:14:00,
2013-10-07 11:15:00,88.5,78.3,29.91,ENE,68,3.8,7.3,72,0.00,,---,0.00,VWS V13.01,2013-10-07 15:15:00,
2013-10-07 11:16:00,88.5,78.3,29.91,ENE,68,3.8,3.8,72,0.00,,---,0.00,VWS V13.01,2013-10-07 15:16:00,
2013-10-07 11:17:00,88.5,78.3,29.92,ENE,68,5.5,5.5,72,0.00,,---,0.00,VWS V13.01,2013-10-07 15:17:00,
2013-10-07 11:19:00,88.5,78.3,29.92,ENE,68,1.5,1.5,72,0.00,,---,0.00,VWS V13.01,2013-10-07 15:19:00,
2013-10-07 11:20:00,88.3,78.1,29.92,East,90,2.0,2.0,72,0.00,,---,0.00,VWS V13.01,2013-10-07 15:20:00,
2013-10-07 11:21:00,88.3,78.1,29.92,East,90,2.0,2.0,72,0.00,,---,0.00,VWS V13.01,2013-10-07 15:21:00,
2013-10-07 11:22:00,88.5,77.9,29.91,East,90,4.9,4.9,71,0.00,,---,0.00,VWS V13.01,2013-10-07 15:22:00,
2013-10-07 11:24:00,88.7,78.1,29.91,ENE,68,4.0,4.0,71,0.00,,---,0.00,VWS V13.01,2013-10-07 15:24:00,
2013-10-07 11:25:00,88.7,78.1,29.91,ESE,112,2.4,2.4,71,0.00,,---,0.00,VWS V13.01,2013-10-07 15:25:00,
2013-10-07 11:26:00,88.7,78.1,29.91,ENE,68,7.8,7.8,71,0.00,,---,0.00,VWS V13.01,2013-10-07 15:26:00,
2013-10-07 11:27:00,88.8,78.2,29.91,East,90,4.0,7.8,71,0.00,,---,0.00,VWS V13.01,2013-10-07 15:27:00,
2013-10-07 11:29:00,89.0,78.4,29.91,NE,45,3.3,3.3,71,0.00,,---,0.00,VWS V13.01,2013-10-07 15:29:00,
2013-10-07 11:30:00,89.0,77.9,29.91,ENE,68,4.4,4.4,70,0.00,,---,0.00,VWS V13.01,2013-10-07 15:30:00,
2013-10-07 11:31:00,89.0,77.9,29.91,ENE,68,2.0,2.0,70,0.00,,---,0.00,VWS V13.01,2013-10-07 15:31:00,
2013-10-07 11:32:00,89.0,77.9,29.91,ENE,68,2.2,2.2,70,0.00,,---,0.00,VWS V13.01,2013-10-07 15:32:00,
2013-10-07 11:34:00,89.2,78.1,29.91,NE,45,5.8,5.8,70,0.00,,---,0.00,VWS V13.01,2013-10-07 15:34:00,
2013-10-07 11:35:00,89.2,78.1,29.91,ENE,68,7.3,7.3,70,0.00,,---,0.00,VWS V13.01,2013-10-07 15:35:00,
2013-10-07 11:36:00,89.2,78.1,29.91,East,90,7.6,7.6,70,0.00,,---,0.00,VWS V13.01,2013-10-07 15:36:00,
2013-10-07 11:37:00,89.2,78.1,29.91,East,90,6.0,6.0,70,0.00,,---,0.00,VWS V13.01,2013-10-07 15:37:00,
2013-10-07 11:39:00,89.4,77.9,29.91,NNE,22,8.2,8.2,69,0.00,,---,0.00,VWS V13.01,2013-10-07 15:39:00,
2013-10-07 11:40:00,89.4,77.9,29.91,SSE,158,2.4,2.4,69,0.00,,---,0.00,VWS V13.01,2013-10-07 15:40:00,
2013-10-07 11:41:00,89.4,77.9,29.91,East,90,3.3,3.3,69,0.00,,---,0.00,VWS V13.01,2013-10-07 15:41:00,
2013-10-07 11:42:00,89.4,77.9,29.91,East,90,3.5,3.5,69,0.00,,---,0.00,VWS V13.01,2013-10-07 15:42:00,
2013-10-07 11:44:00,89.4,77.9,29.91,ESE,112,4.6,4.6,69,0.00,,---,0.00,VWS V13.01,2013-10-07 15:44:00,
2013-10-07 11:45:00,89.4,77.9,29.91,East,90,8.7,8.7,69,0.00,,---,0.00,VWS V13.01,2013-10-07 15:45:00,
2013-10-07 11:46:00,89.4,77.9,29.91,NE,45,4.2,4.2,69,0.00,,---,0.00,VWS V13.01,2013-10-07 15:46:00,
2013-10-07 11:47:00,89.4,77.9,29.91,ENE,68,8.9,8.9,69,0.00,,---,0.00,VWS V13.01,2013-10-07 15:47:00,
2013-10-07 11:49:00,89.4,77.9,29.90,NNE,22,6.0,6.0,69,0.00,,---,0.00,VWS V13.01,2013-10-07 15:49:00,
2013-10-07 11:50:00,89.7,78.2,29.90,ENE,68,10.5,10.5,69,0.00,,---,0.00,VWS V13.01,2013-10-07 15:50:00,
2013-10-07 11:51:00,89.6,78.1,29.90,ENE,68,11.8,11.8,69,0.00,,---,0.00,VWS V13.01,2013-10-07 15:51:00,
2013-10-07 11:52:00,89.6,78.1,29.91,ENE,68,6.9,6.9,69,0.00,,---,0.00,VWS V13.01,2013-10-07 15:52:00,
2013-10-07 11:54:00,89.7,77.7,29.91,NE,45,2.0,2.0,68,0.00,,---,0.00,VWS V13.01,2013-10-07 15:54:00,
2013-10-07 11:55:00,89.7,77.7,29.91,NNE,22,5.3,5.3,68,0.00,,---,0.00,VWS V13.01,2013-10-07 15:55:00,
2013-10-07 11:56:00,89.7,77.7,29.90,ENE,68,9.6,9.6,68,0.00,,---,0.00,VWS V13.01,2013-10-07 15:56:00,
2013-10-07 11:57:00,89.7,77.7,29.90,ENE,68,9.6,9.6,68,0.00,,---,0.00,VWS V13.01,2013-10-07 15:57:00,
2013-10-07 11:59:00,89.7,77.3,29.90,ENE,68,5.5,5.5,67,0.00,,---,0.00,VWS V13.01,2013-10-07 15:59:00,
2013-10-07 12:00:00,89.7,77.3,29.90,ENE,68,5.8,5.8,67,0.00,,---,0.00,VWS V13.01,2013-10-07 16:00:00,
2013-10-07 12:02:00,89.7,77.7,29.90,ENE,68,6.7,6.7,68,0.00,,---,0.00,VWS V13.01,2013-10-07 16:02:00,
2013-10-07 12:03:00,89.9,77.9,29.90,East,90,4.2,4.2,68,0.00,,---,0.00,VWS V13.01,2013-10-07 16:03:00,
2013-10-07 12:04:00,89.9,77.9,29.90,East,90,9.1,9.1,68,0.00,,---,0.00,VWS V13.01,2013-10-07 16:04:00,
2013-10-07 12:05:00,89.9,77.9,29.90,ENE,68,8.2,8.2,68,0.00,,---,0.00,VWS V13.01,2013-10-07 16:05:00,
2013-10-07 12:07:00,90.1,78.6,29.90,ESE,112,6.9,6.9,69,0.00,,---,0.00,VWS V13.01,2013-10-07 16:07:00,
2013-10-07 12:08:00,90.1,78.6,29.90,NE,45,6.7,6.7,69,0.00,,---,0.00,VWS V13.01,2013-10-07 16:08:00,
2013-10-07 12:09:00,90.1,78.6,29.90,NE,45,8.9,8.9,69,0.00,,---,0.00,VWS V13.01,2013-10-07 16:09:00,
2013-10-07 12:10:00,90.1,78.6,29.90,NE,45,8.0,8.0,69,0.00,,---,0.00,VWS V13.01,2013-10-07 16:10:00,
2013-10-07 12:12:00,90.1,78.6,29.90,ENE,68,2.0,2.0,69,0.00,,---,0.00,VWS V13.01,2013-10-07 16:12:00,
2013-10-07 12:13:00,90.3,78.8,29.90,ESE,112,9.1,9.1,69,0.00,,---,0.00,VWS V13.01,2013-10-07 16:13:00,
2013-10-07 12:14:00,90.3,78.8,29.90,ENE,68,3.1,3.1,69,0.00,,---,0.00,VWS V13.01,2013-10-07 16:14:00,
2013-10-07 12:15:00,90.3,78.8,29.90,East,90,9.6,9.6,69,0.00,,---,0.00,VWS V13.01,2013-10-07 16:15:00,
2013-10-07 12:17:00,90.3,78.8,29.90,NE,45,7.3,7.3,69,0.00,,---,0.00,VWS V13.01,2013-10-07 16:17:00,
2013-10-07 12:18:00,90.3,78.8,29.90,ESE,112,8.0,8.0,69,0.00,,---,0.00,VWS V13.01,2013-10-07 16:18:00,
2013-10-07 12:19:00,90.5,78.9,29.89,East,90,5.8,5.8,69,0.00,,---,0.00,VWS V13.01,2013-10-07 16:19:00,
2013-10-07 12:20:00,90.5,78.9,29.90,East,90,10.7,10.7,69,0.00,,---,0.00,VWS V13.01,2013-10-07 16:20:00,
2013-10-07 12:22:00,90.6,79.0,29.89,ENE,68,7.8,7.8,69,0.00,,---,0.00,VWS V13.01,2013-10-07 16:22:00,
2013-10-07 12:23:00,90.6,79.0,29.89,SE,135,6.9,6.9,69,0.00,,---,0.00,VWS V13.01,2013-10-07 16:23:00,
2013-10-07 12:24:00,90.6,79.0,29.89,NE,45,9.3,9.3,69,0.00,,---,0.00,VWS V13.01,2013-10-07 16:24:00,
2013-10-07 12:26:00,90.6,78.6,29.89,ESE,112,5.8,5.8,68,0.00,,---,0.00,VWS V13.01,2013-10-07 16:26:00,
2013-10-07 12:27:00,90.6,78.6,29.89,East,90,13.1,13.1,68,0.00,,---,0.00,VWS V13.01,2013-10-07 16:27:00,
2013-10-07 12:28:00,90.6,78.6,29.89,East,90,7.3,7.3,68,0.00,,---,0.00,VWS V13.01,2013-10-07 16:28:00,
2013-10-07 12:29:00,90.8,78.8,29.89,ENE,68,7.6,7.6,68,0.00,,---,0.00,VWS V13.01,2013-10-07 16:29:00,
2013-10-07 12:31:00,91.0,79.0,29.89,SE,135,8.7,8.7,68,0.00,,---,0.00,VWS V13.01,2013-10-07 16:31:00,
2013-10-07 12:32:00,91.0,79.0,29.89,SE,135,5.1,5.1,68,0.00,,---,0.00,VWS V13.01,2013-10-07 16:32:00,
2013-10-07 12:33:00,91.2,79.2,29.89,ENE,68,0.0,0.0,68,0.00,,---,0.00,VWS V13.01,2013-10-07 16:33:00,
2013-10-07 12:34:00,91.2,79.2,29.89,ENE,68,10.9,10.9,68,0.00,,---,0.00,VWS V13.01,2013-10-07 16:34:00,
2013-10-07 12:36:00,91.2,79.2,29.89,ESE,112,9.3,9.3,68,0.00,,---,0.00,VWS V13.01,2013-10-07 16:36:00,
2013-10-07 12:37:00,91.2,79.2,29.89,ESE,112,8.5,8.5,68,0.00,,---,0.00,VWS V13.01,2013-10-07 16:37:00,
2013-10-07 12:38:00,91.2,79.2,29.89,ENE,68,6.4,6.4,68,0.00,,---,0.00,VWS V13.01,2013-10-07 16:38:00,
2013-10-07 12:39:00,91.2,79.2,29.89,ENE,68,6.4,6.4,68,0.00,,---,0.00,VWS V13.01,2013-10-07 16:39:00,
2013-10-07 12:40:00,91.2,79.2,29.89,NE,45,9.1,9.1,68,0.00,,---,0.00,VWS V13.01,2013-10-07 16:40:00,
2013-10-07 12:41:00,91.0,79.0,29.89,NE,45,10.2,10.2,68,0.00,,---,0.00,VWS V13.01,2013-10-07 16:41:00,
2013-10-07 12:42:00,91.0,79.0,29.89,NE,45,10.2,10.2,68,0.00,,---,0.00,VWS V13.01,2013-10-07 16:42:00,
2013-10-07 12:43:00,90.8,78.8,29.88,NNE,22,5.8,5.8,68,0.00,,---,0.00,VWS V13.01,2013-10-07 16:43:00,
2013-10-07 12:44:00,90.8,78.8,29.88,NNE,22,5.8,5.8,68,0.00,,---,0.00,VWS V13.01,2013-10-07 16:44:00,
2013-10-07 12:45:00,90.6,78.6,29.89,ENE,68,2.0,2.0,68,0.00,,---,0.00,VWS V13.01,2013-10-07 16:45:00,
2013-10-07 12:46:00,90.6,78.6,29.89,East,90,9.3,9.3,68,0.00,,---,0.00,VWS V13.01,2013-10-07 16:46:00,
2013-10-07 12:47:00,90.6,78.6,29.89,East,90,9.3,9.3,68,0.00,,---,0.00,VWS V13.01,2013-10-07 16:47:00,
2013-10-07 12:48:00,90.6,78.6,29.89,ENE,68,5.3,5.3,68,0.00,,---,0.00,VWS V13.01,2013-10-07 16:48:00,
2013-10-07 12:49:00,90.6,78.6,29.89,ENE,68,5.3,5.3,68,0.00,,---,0.00,VWS V13.01,2013-10-07 16:49:00,
2013-10-07 12:50:00,90.6,78.6,29.89,ENE,68,2.4,2.4,68,0.00,,---,0.00,VWS V13.01,2013-10-07 16:50:00,
2013-10-07 12:51:00,90.5,78.5,29.89,ENE,68,6.0,6.0,68,0.00,,---,0.00,VWS V13.01,2013-10-07 16:51:00,
2013-10-07 12:52:00,90.5,78.5,29.89,ENE,68,6.0,6.0,68,0.00,,---,0.00,VWS V13.01,2013-10-07 16:52:00,
2013-10-07 12:53:00,90.3,78.8,29.89,East,90,3.1,3.1,69,0.00,,---,0.00,VWS V13.01,2013-10-07 16:53:00,
2013-10-07 12:54:00,90.3,78.8,29.89,East,90,3.1,3.1,69,0.00,,---,0.00,VWS V13.01,2013-10-07 16:54:00,
2013-10-07 12:55:00,90.3,78.8,29.89,ESE,112,4.0,4.0,69,0.00,,---,0.00,VWS V13.01,2013-10-07 16:55:00,
2013-10-07 12:56:00,90.3,78.8,29.89,East,90,8.9,8.9,69,0.00,,---,0.00,VWS V13.01,2013-10-07 16:56:00,
2013-10-07 12:57:00,90.3,78.8,29.89,East,90,8.9,8.9,69,0.00,,---,0.00,VWS V13.01,2013-10-07 16:57:00,
2013-10-07 12:58:00,90.1,78.6,29.88,East,90,4.2,4.2,69,0.00,,---,0.00,VWS V13.01,2013-10-07 16:58:00,
2013-10-07 12:59:00,90.1,78.6,29.88,East,90,4.2,4.2,69,0.00,,---,0.00,VWS V13.01,2013-10-07 16:59:00,
2013-10-07 13:00:00,89.9,78.4,29.88,ENE,68,8.5,8.5,69,0.00,,---,0.00,VWS V13.01,2013-10-07 17:00:00,
2013-10-07 13:01:00,89.9,78.4,29.88,ENE,68,5.8,5.8,69,0.00,,---,0.00,VWS V13.01,2013-10-07 17:01:00,
2013-10-07 13:02:00,89.9,78.4,29.88,ENE,68,5.8,5.8,69,0.00,,---,0.00,VWS V13.01,2013-10-07 17:02:00,
2013-10-07 13:03:00,89.9,78.4,29.88,ENE,68,8.9,8.9,69,0.00,,---,0.00,VWS V13.01,2013-10-07 17:03:00,
2013-10-07 13:04:00,89.9,78.4,29.88,ENE,68,8.9,8.9,69,0.00,,---,0.00,VWS V13.01,2013-10-07 17:04:00,
2013-10-07 13:05:00,89.9,78.4,29.88,ESE,112,2.6,2.6,69,0.00,,---,0.00,VWS V13.01,2013-10-07 17:05:00,
2013-10-07 13:07:00,89.9,79.2,29.88,ENE,68,8.2,8.2,71,0.00,,---,0.00,VWS V13.01,2013-10-07 17:07:00,
2013-10-07 13:08:00,89.9,79.7,29.88,SE,135,1.3,1.3,72,0.00,,---,0.00,VWS V13.01,2013-10-07 17:08:00,
2013-10-07 13:09:00,89.9,80.1,29.88,ENE,68,8.2,8.2,73,0.00,,---,0.00,VWS V13.01,2013-10-07 17:09:00,
2013-10-07 13:10:00,89.9,80.1,29.88,ENE,68,8.2,8.2,73,0.00,,---,0.00,VWS V13.01,2013-10-07 17:10:00,
2013-10-07 13:12:00,90.1,80.7,29.88,ENE,68,9.8,9.8,74,0.00,,---,0.00,VWS V13.01,2013-10-07 17:12:00,
2013-10-07 13:13:00,90.1,80.7,29.88,ENE,68,1.7,1.7,74,0.00,,---,0.00,VWS V13.01,2013-10-07 17:13:00,
2013-10-07 13:14:00,90.1,80.3,29.88,ENE,68,4.6,4.6,73,0.00,,---,0.00,VWS V13.01,2013-10-07 17:14:00,
2013-10-07 13:15:00,90.1,80.3,29.88,ENE,68,4.6,4.6,73,0.00,,---,0.00,VWS V13.01,2013-10-07 17:15:00,
2013-10-07 13:17:00,90.3,80.9,29.87,NE,45,8.5,8.5,74,0.02,,---,0.02,VWS V13.01,2013-10-07 17:17:00,
2013-10-07 13:18:00,90.3,80.9,29.87,East,90,8.7,8.7,74,0.02,,---,0.02,VWS V13.01,2013-10-07 17:18:00,
2013-10-07 13:19:00,90.3,80.5,29.87,ENE,68,8.0,8.0,73,0.02,,---,0.02,VWS V13.01,2013-10-07 17:19:00,
2013-10-07 13:20:00,90.3,80.5,29.87,ENE,68,8.0,8.0,73,0.02,,---,0.02,VWS V13.01,2013-10-07 17:20:00,
2013-10-07 13:22:00,90.5,80.7,29.87,NNE,22,3.8,8.5,73,0.02,,---,0.02,VWS V13.01,2013-10-07 17:22:00,
2013-10-07 13:23:00,90.5,80.7,29.87,NNE,22,3.8,3.8,73,0.02,,---,0.02,VWS V13.01,2013-10-07 17:23:00,
2013-10-07 13:24:00,90.5,80.2,29.87,ENE,68,8.5,8.5,72,0.02,,---,0.02,VWS V13.01,2013-10-07 17:24:00,
2013-10-07 13:25:00,90.5,80.2,29.87,ENE,68,8.5,8.5,72,0.02,,---,0.02,VWS V13.01,2013-10-07 17:25:00,
2013-10-07 13:27:00,90.6,79.9,29.87,East,90,7.6,7.6,71,0.02,,---,0.02,VWS V13.01,2013-10-07 17:27:00,
2013-10-07 13:28:00,90.6,79.9,29.87,East,90,7.6,7.6,71,0.02,,---,0.02,VWS V13.01,2013-10-07 17:28:00,
2013-10-07 13:29:00,90.6,79.5,29.86,ENE,68,4.6,4.6,70,0.02,,---,0.02,VWS V13.01,2013-10-07 17:29:00,
2013-10-07 13:30:00,90.6,79.5,29.86,ENE,68,4.6,4.6,70,0.02,,---,0.02,VWS V13.01,2013-10-07 17:30:00,
2013-10-07 13:32:00,90.6,79.5,29.87,NE,45,10.7,10.7,70,0.02,,---,0.02,VWS V13.01,2013-10-07 17:32:00,
2013-10-07 13:33:00,90.6,79.5,29.87,NE,45,10.7,10.7,70,0.02,,---,0.02,VWS V13.01,2013-10-07 17:33:00,
2013-10-07 13:34:00,90.6,79.0,29.87,ENE,68,5.1,5.1,69,0.02,,---,0.02,VWS V13.01,2013-10-07 17:34:00,
2013-10-07 13:35:00,90.6,79.0,29.87,ENE,68,5.1,5.1,69,0.02,,---,0.02,VWS V13.01,2013-10-07 17:35:00,
2013-10-07 13:37:00,90.6,79.0,29.86,East,90,9.3,9.3,69,0.02,,---,0.02,VWS V13.01,2013-10-07 17:37:00,
2013-10-07 13:38:00,90.6,79.0,29.86,East,90,9.3,9.3,69,0.02,,---,0.02,VWS V13.01,2013-10-07 17:38:00,
2013-10-07 13:39:00,90.6,79.5,29.86,East,90,8.2,8.2,70,0.02,,---,0.02,VWS V13.01,2013-10-07 17:39:00,
2013-10-07 13:40:00,90.6,79.5,29.86,ENE,68,9.8,9.8,70,0.02,,---,0.02,VWS V13.01,2013-10-07 17:40:00,
2013-10-07 13:42:00,90.5,78.9,29.86,East,90,6.0,6.0,69,0.02,,---,0.02,VWS V13.01,2013-10-07 17:42:00,
2013-10-07 13:43:00,90.5,78.9,29.86,NE,45,8.0,8.0,69,0.02,,---,0.02,VWS V13.01,2013-10-07 17:43:00,
2013-10-07 13:44:00,90.5,78.9,29.86,NE,45,8.0,8.0,69,0.02,,---,0.02,VWS V13.01,2013-10-07 17:44:00,
2013-10-07 13:45:00,90.6,79.5,29.86,ENE,68,7.1,7.1,70,0.02,,---,0.02,VWS V13.01,2013-10-07 17:45:00,
2013-10-07 13:47:00,91.0,79.4,29.86,ENE,68,4.4,4.4,69,0.02,,---,0.02,VWS V13.01,2013-10-07 17:47:00,
2013-10-07 13:48:00,91.0,79.4,29.85,East,90,8.2,8.2,69,0.02,,---,0.02,VWS V13.01,2013-10-07 17:48:00,
2013-10-07 13:49:00,91.0,79.4,29.85,ENE,68,15.6,15.6,69,0.02,,---,0.02,VWS V13.01,2013-10-07 17:49:00,
2013-10-07 13:50:00,91.0,79.4,29.85,ENE,68,15.6,15.6,69,0.02,,---,0.02,VWS V13.01,2013-10-07 17:50:00,
2013-10-07 13:52:00,91.5,79.9,29.86,NE,45,13.6,13.6,69,0.02,,---,0.02,VWS V13.01,2013-10-07 17:52:00,
2013-10-07 13:53:00,91.5,79.9,29.86,NE,45,13.6,13.6,69,0.02,,---,0.02,VWS V13.01,2013-10-07 17:53:00,
2013-10-07 13:54:00,91.7,80.1,29.86,SE,135,4.0,4.0,69,0.02,,---,0.02,VWS V13.01,2013-10-07 17:54:00,
2013-10-07 13:55:00,91.7,80.1,29.86,SE,135,4.0,4.0,69,0.02,,---,0.02,VWS V13.01,2013-10-07 17:55:00,
2013-10-07 13:57:00,91.7,80.1,29.86,East,90,4.9,4.9,69,0.02,,---,0.02,VWS V13.01,2013-10-07 17:57:00,
2013-10-07 13:58:00,91.7,79.6,29.85,East,90,12.3,12.3,68,0.02,,---,0.02,VWS V13.01,2013-10-07 17:58:00,
2013-10-07 13:59:00,91.7,79.6,29.86,NE,45,8.0,8.0,68,0.02,,---,0.02,VWS V13.01,2013-10-07 17:59:00,
2013-10-07 14:00:00,91.7,79.6,29.86,NE,45,8.0,8.0,68,0.02,,---,0.02,VWS V13.01,2013-10-07 18:00:00,
2013-10-07 14:02:00,91.4,79.8,29.86,NE,45,1.3,1.3,69,0.02,,---,0.02,VWS V13.01,2013-10-07 18:02:00,
2013-10-07 14:03:00,91.4,79.8,29.86,East,90,10.0,10.0,69,0.02,,---,0.02,VWS V13.01,2013-10-07 18:03:00,
2013-10-07 14:05:00,91.4,79.8,29.86,NE,45,4.2,4.2,69,0.02,,---,0.02,VWS V13.01,2013-10-07 18:05:00,
2013-10-07 14:07:00,91.2,79.6,29.86,SE,135,3.1,3.1,69,0.02,,---,0.02,VWS V13.01,2013-10-07 18:07:00,
2013-10-07 14:08:00,91.0,79.4,29.85,East,90,2.2,2.2,69,0.02,,---,0.02,VWS V13.01,2013-10-07 18:08:00,
2013-10-07 14:10:00,91.0,79.4,29.86,ENE,68,4.6,4.6,69,0.02,,---,0.02,VWS V13.01,2013-10-07 18:10:00,
2013-10-07 14:12:00,90.6,79.0,29.85,ENE,68,12.5,12.5,69,0.02,,---,0.02,VWS V13.01,2013-10-07 18:12:00,
2013-10-07 14:13:00,90.6,79.0,29.85,ENE,68,7.8,7.8,69,0.00,,---,0.02,VWS V13.01,2013-10-07 18:13:00,
2013-10-07 14:15:00,90.6,79.0,29.85,East,90,4.9,4.9,69,0.00,,---,0.02,VWS V13.01,2013-10-07 18:15:00,
2013-10-07 14:18:00,90.5,78.9,29.85,East,90,6.0,6.0,69,0.00,,---,0.02,VWS V13.01,2013-10-07 18:18:00,
2013-10-07 14:20:00,90.3,79.2,29.85,East,90,4.9,4.9,70,0.00,,---,0.02,VWS V13.01,2013-10-07 18:20:00,
2013-10-07 14:23:00,90.1,79.0,29.86,East,90,9.3,9.3,70,0.00,,---,0.02,VWS V13.01,2013-10-07 18:23:00,
2013-10-07 14:24:00,89.9,79.2,29.86,ESE,112,11.8,11.8,71,0.00,,---,0.02,VWS V13.01,2013-10-07 18:24:00,
2013-10-07 14:25:00,89.7,79.1,29.85,ENE,68,7.8,7.8,71,0.00,,---,0.02,VWS V13.01,2013-10-07 18:25:00,
2013-10-07 14:26:00,89.7,79.1,29.85,ENE,68,7.8,7.8,71,0.00,,---,0.02,VWS V13.01,2013-10-07 18:26:00,
2013-10-07 14:27:00,89.7,79.1,29.85,ENE,68,11.6,11.6,71,0.00,,---,0.02,VWS V13.01,2013-10-07 18:27:00,
2013-10-07 14:29:00,89.4,78.8,29.85,ENE,68,2.0,2.0,71,0.00,,---,0.02,VWS V13.01,2013-10-07 18:29:00,
2013-10-07 14:30:00,89.6,78.9,29.85,NE,45,1.1,1.1,71,0.00,,---,0.02,VWS V13.01,2013-10-07 18:30:00,
2013-10-07 14:31:00,89.6,78.9,29.85,NE,45,1.1,1.1,71,0.00,,---,0.02,VWS V13.01,2013-10-07 18:31:00,
2013-10-07 14:33:00,89.4,78.8,29.85,East,90,3.1,3.1,71,0.00,,---,0.02,VWS V13.01,2013-10-07 18:33:00,
2013-10-07 14:34:00,89.4,78.8,29.85,NE,45,1.5,1.5,71,0.00,,---,0.02,VWS V13.01,2013-10-07 18:34:00,
2013-10-07 14:35:00,89.4,78.8,29.85,North,0,0.8,0.8,71,0.00,,---,0.02,VWS V13.01,2013-10-07 18:35:00,
2013-10-07 14:36:00,89.4,78.8,29.85,North,0,0.8,0.8,71,0.00,,---,0.02,VWS V13.01,2013-10-07 18:36:00,
2013-10-07 14:38:00,89.4,78.8,29.85,ENE,68,8.0,8.0,71,0.00,,---,0.02,VWS V13.01,2013-10-07 18:38:00,
2013-10-07 14:39:00,89.4,78.8,29.85,East,90,5.1,5.1,71,0.00,,---,0.02,VWS V13.01,2013-10-07 18:39:00,
2013-10-07 14:40:00,89.4,78.8,29.85,SE,135,1.7,1.7,71,0.00,,---,0.02,VWS V13.01,2013-10-07 18:40:00,
2013-10-07 14:41:00,89.4,78.8,29.85,SE,135,1.7,1.7,71,0.00,,---,0.02,VWS V13.01,2013-10-07 18:41:00,
2013-10-07 14:43:00,89.4,78.8,29.85,ENE,68,3.8,3.8,71,0.00,,---,0.02,VWS V13.01,2013-10-07 18:43:00,
2013-10-07 14:44:00,89.2,78.6,29.85,ENE,68,3.5,3.5,71,0.00,,---,0.02,VWS V13.01,2013-10-07 18:44:00,
2013-10-07 14:45:00,89.2,78.6,29.85,ESE,112,7.3,7.3,71,0.00,,---,0.02,VWS V13.01,2013-10-07 18:45:00,
2013-10-07 14:46:00,89.2,78.6,29.85,ESE,112,7.3,7.3,71,0.00,,---,0.02,VWS V13.01,2013-10-07 18:46:00,
2013-10-07 14:48:00,89.2,78.6,29.85,ENE,68,3.1,3.1,71,0.00,,---,0.02,VWS V13.01,2013-10-07 18:48:00,
2013-10-07 14:49:00,89.2,78.6,29.85,SE,135,6.9,6.9,71,0.00,,---,0.02,VWS V13.01,2013-10-07 18:49:00,
2013-10-07 14:50:00,89.2,78.6,29.85,SE,135,3.5,3.5,71,0.00,,---,0.02,VWS V13.01,2013-10-07 18:50:00,
2013-10-07 14:51:00,89.2,78.6,29.85,SE,135,3.5,3.5,71,0.00,,---,0.02,VWS V13.01,2013-10-07 18:51:00,
2013-10-07 14:53:00,89.0,78.4,29.84,NNE,22,4.2,4.2,71,0.00,,---,0.02,VWS V13.01,2013-10-07 18:53:00,
2013-10-07 14:55:00,88.8,78.2,29.84,ENE,68,8.0,8.0,71,0.00,,---,0.02,VWS V13.01,2013-10-07 18:55:00,
2013-10-07 14:56:00,88.8,78.2,29.84,East,90,5.8,5.8,71,0.00,,---,0.02,VWS V13.01,2013-10-07 18:56:00,
2013-10-07 14:58:00,88.8,78.2,29.85,ENE,68,10.0,10.0,71,0.00,,---,0.02,VWS V13.01,2013-10-07 18:58:00,
2013-10-07 15:00:00,88.8,78.2,29.85,SSE,158,0.0,0.0,71,0.00,,---,0.02,VWS V13.01,2013-10-07 19:00:00,
2013-10-07 15:01:00,88.8,78.2,29.85,SSE,158,2.2,2.2,71,0.00,,---,0.02,VWS V13.01,2013-10-07 19:01:00,
2013-10-07 15:03:00,88.8,78.2,29.85,SE,135,2.0,2.0,71,0.00,,---,0.02,VWS V13.01,2013-10-07 19:03:00,
2013-10-07 15:05:00,88.8,78.2,29.85,East,90,5.8,5.8,71,0.00,,---,0.02,VWS V13.01,2013-10-07 19:05:00,
2013-10-07 15:06:00,88.7,78.1,29.85,ESE,112,3.8,3.8,71,0.00,,---,0.02,VWS V13.01,2013-10-07 19:06:00,
2013-10-07 15:08:00,88.7,78.1,29.85,East,90,1.5,1.5,71,0.00,,---,0.02,VWS V13.01,2013-10-07 19:08:00,
2013-10-07 15:10:00,88.8,78.2,29.85,SSE,158,3.1,3.1,71,0.00,,---,0.02,VWS V13.01,2013-10-07 19:10:00,
2013-10-07 15:11:00,88.7,78.1,29.85,ENE,68,0.0,0.0,71,0.00,,---,0.02,VWS V13.01,2013-10-07 19:11:00,
2013-10-07 15:12:00,88.7,78.1,29.85,ENE,68,0.0,0.0,71,0.00,,---,0.02,VWS V13.01,2013-10-07 19:12:00,
2013-10-07 15:13:00,88.7,78.1,29.85,ENE,68,1.7,1.7,71,0.00,,---,0.02,VWS V13.01,2013-10-07 19:13:00,
2013-10-07 15:15:00,88.7,78.1,29.85,ESE,112,3.8,3.8,71,0.00,,---,0.02,VWS V13.01,2013-10-07 19:15:00,
2013-10-07 15:16:00,88.7,78.1,29.85,East,90,3.1,3.1,71,0.00,,---,0.02,VWS V13.01,2013-10-07 19:16:00,
2013-10-07 15:17:00,88.7,78.1,29.85,East,90,3.1,3.1,71,0.00,,---,0.02,VWS V13.01,2013-10-07 19:17:00,
2013-10-07 15:18:00,88.7,78.1,29.85,East,90,6.0,6.0,71,0.00,,---,0.02,VWS V13.01,2013-10-07 19:18:00,
2013-10-07 15:20:00,88.7,78.1,29.85,ENE,68,3.1,3.1,71,0.00,,---,0.02,VWS V13.01,2013-10-07 19:20:00,
2013-10-07 15:21:00,88.7,78.1,29.85,ENE,68,8.0,8.0,71,0.00,,---,0.02,VWS V13.01,2013-10-07 19:21:00,
2013-10-07 15:22:00,88.7,78.1,29.85,ENE,68,8.0,8.0,71,0.00,,---,0.02,VWS V13.01,2013-10-07 19:22:00,
2013-10-07 15:23:00,88.7,78.1,29.85,NE,45,4.4,4.4,71,0.00,,---,0.02,VWS V13.01,2013-10-07 19:23:00,
2013-10-07 15:25:00,88.5,77.9,29.85,ENE,68,4.4,4.4,71,0.00,,---,0.02,VWS V13.01,2013-10-07 19:25:00,
2013-10-07 15:26:00,88.5,77.9,29.85,ENE,68,2.4,2.4,71,0.00,,---,0.02,VWS V13.01,2013-10-07 19:26:00,
2013-10-07 15:27:00,88.5,77.9,29.85,ENE,68,2.4,2.4,71,0.00,,---,0.02,VWS V13.01,2013-10-07 19:27:00,
2013-10-07 15:28:00,88.5,77.9,29.85,East,90,4.9,4.9,71,0.00,,---,0.02,VWS V13.01,2013-10-07 19:28:00,
2013-10-07 15:30:00,88.5,77.9,29.85,ENE,68,2.0,2.0,71,0.00,,---,0.02,VWS V13.01,2013-10-07 19:30:00,
2013-10-07 15:31:00,88.5,77.9,29.85,East,90,2.0,2.0,71,0.00,,---,0.02,VWS V13.01,2013-10-07 19:31:00,
2013-10-07 15:32:00,88.5,77.9,29.85,East,90,2.0,2.0,71,0.00,,---,0.02,VWS V13.01,2013-10-07 19:32:00,
2013-10-07 15:33:00,88.5,78.3,29.85,SE,135,3.8,3.8,72,0.00,,---,0.02,VWS V13.01,2013-10-07 19:33:00,
2013-10-07 15:36:00,88.5,78.3,29.86,East,90,6.7,6.7,72,0.00,,---,0.02,VWS V13.01,2013-10-07 19:36:00,
2013-10-07 15:37:00,88.5,78.3,29.86,East,90,6.7,6.7,72,0.00,,---,0.02,VWS V13.01,2013-10-07 19:37:00,
2013-10-07 15:38:00,88.5,78.3,29.85,ENE,68,6.0,6.0,72,0.00,,---,0.02,VWS V13.01,2013-10-07 19:38:00,
2013-10-07 15:41:00,88.5,78.3,29.86,East,90,2.4,2.4,72,0.00,,---,0.02,VWS V13.01,2013-10-07 19:41:00,
2013-10-07 15:42:00,88.5,78.3,29.86,East,90,2.4,2.4,72,0.00,,---,0.02,VWS V13.01,2013-10-07 19:42:00,
2013-10-07 15:43:00,88.5,78.3,29.86,East,90,3.8,3.8,72,0.00,,---,0.02,VWS V13.01,2013-10-07 19:43:00,
2013-10-07 15:46:00,88.5,78.3,29.85,ENE,68,0.0,0.0,72,0.00,,---,0.02,VWS V13.01,2013-10-07 19:46:00,
2013-10-07 15:47:00,88.5,78.3,29.85,ENE,68,0.0,0.0,72,0.00,,---,0.02,VWS V13.01,2013-10-07 19:47:00,
2013-10-07 15:48:00,88.5,78.3,29.85,SE,135,0.6,0.6,72,0.00,,---,0.02,VWS V13.01,2013-10-07 19:48:00,
2013-10-07 15:51:00,88.5,78.3,29.86,ENE,68,4.4,4.4,72,0.00,,---,0.02,VWS V13.01,2013-10-07 19:51:00,
2013-10-07 15:52:00,88.5,78.3,29.86,ENE,68,1.3,1.3,72,0.00,,---,0.02,VWS V13.01,2013-10-07 19:52:00,
2013-10-07 15:53:00,88.5,78.3,29.85,SE,135,3.1,3.1,72,0.00,,---,0.02,VWS V13.01,2013-10-07 19:53:00,
2013-10-07 15:56:00,88.7,78.5,29.86,ENE,68,3.1,3.1,72,0.00,,---,0.02,VWS V13.01,2013-10-07 19:56:00,
2013-10-07 15:57:00,88.7,78.5,29.85,North,0,2.6,2.6,72,0.00,,---,0.02,VWS V13.01,2013-10-07 19:57:00,
2013-10-07 15:58:00,88.7,78.5,29.85,North,0,2.6,2.6,72,0.00,,---,0.02,VWS V13.01,2013-10-07 19:58:00,
2013-10-07 16:01:00,88.5,78.3,29.85,ENE,68,3.5,3.5,72,0.00,,---,0.02,VWS V13.01,2013-10-07 20:01:00,
2013-10-07 16:02:00,88.5,78.3,29.85,ENE,68,0.0,3.5,72,0.00,,---,0.02,VWS V13.01,2013-10-07 20:02:00,
2013-10-07 16:03:00,88.5,78.3,29.85,East,90,3.8,3.8,72,0.00,,---,0.02,VWS V13.01,2013-10-07 20:03:00,
2013-10-07 16:07:00,88.7,78.5,29.85,East,90,2.2,2.2,72,0.00,,---,0.02,VWS V13.01,2013-10-07 20:07:00,
2013-10-07 16:08:00,88.7,78.5,29.85,East,90,0.0,0.0,72,0.00,,---,0.02,VWS V13.01,2013-10-07 20:08:00,
2013-10-07 16:12:00,88.7,78.5,29.85,ESE,112,1.1,1.1,72,0.00,,---,0.02,VWS V13.01,2013-10-07 20:12:00,
2013-10-07 16:13:00,88.8,78.2,29.85,ENE,68,1.1,1.1,71,0.00,,---,0.02,VWS V13.01,2013-10-07 20:13:00,
2013-10-07 16:17:00,88.8,78.2,29.84,ESE,112,1.5,1.5,71,0.00,,---,0.02,VWS V13.01,2013-10-07 20:17:00,
2013-10-07 16:18:00,88.8,78.2,29.84,ENE,68,0.0,0.0,71,0.00,,---,0.02,VWS V13.01,2013-10-07 20:18:00,
2013-10-07 16:22:00,88.8,78.2,29.84,ESE,112,3.5,3.5,71,0.00,,---,0.02,VWS V13.01,2013-10-07 20:22:00,
2013-10-07 16:23:00,88.8,78.2,29.84,SE,135,1.5,1.5,71,0.00,,---,0.02,VWS V13.01,2013-10-07 20:23:00,
2013-10-07 16:27:00,88.8,77.8,29.85,SE,135,2.4,2.4,70,0.00,,---,0.02,VWS V13.01,2013-10-07 20:27:00,
2013-10-07 16:28:00,88.8,77.8,29.85,SE,135,2.2,2.2,70,0.00,,---,0.02,VWS V13.01,2013-10-07 20:28:00,
2013-10-07 16:29:00,88.8,77.8,29.85,SSE,158,4.4,4.4,70,0.00,,---,0.02,VWS V13.01,2013-10-07 20:29:00,
2013-10-07 16:32:00,88.8,77.3,29.85,SE,135,1.3,1.3,69,0.00,,---,0.02,VWS V13.01,2013-10-07 20:32:00,
2013-10-07 16:33:00,88.8,77.3,29.85,SE,135,1.3,1.3,69,0.00,,---,0.02,VWS V13.01,2013-10-07 20:33:00,
2013-10-07 16:34:00,88.8,77.3,29.85,South,180,4.2,4.2,69,0.00,,---,0.02,VWS V13.01,2013-10-07 20:34:00,
2013-10-07 16:37:00,88.8,76.4,29.85,South,180,4.6,4.6,67,0.00,,---,0.02,VWS V13.01,2013-10-07 20:37:00,
2013-10-07 16:38:00,88.8,76.4,29.85,South,180,4.6,4.6,67,0.00,,---,0.02,VWS V13.01,2013-10-07 20:38:00,
2013-10-07 16:39:00,88.8,76.4,29.85,SSE,158,3.3,3.3,67,0.00,,---,0.02,VWS V13.01,2013-10-07 20:39:00,
2013-10-07 16:42:00,88.8,76.4,29.86,SSE,158,2.9,2.9,67,0.00,,---,0.02,VWS V13.01,2013-10-07 20:42:00,
2013-10-07 16:43:00,88.8,76.4,29.86,SSE,158,2.9,2.9,67,0.00,,---,0.02,VWS V13.01,2013-10-07 20:43:00,
2013-10-07 16:44:00,88.8,76.4,29.86,South,180,3.8,3.8,67,0.00,,---,0.02,VWS V13.01,2013-10-07 20:44:00,
2013-10-07 16:47:00,88.8,76.0,29.86,SSE,158,2.6,2.6,66,0.00,,---,0.02,VWS V13.01,2013-10-07 20:47:00,
2013-10-07 16:48:00,88.8,76.0,29.86,SSE,158,2.6,2.6,66,0.00,,---,0.02,VWS V13.01,2013-10-07 20:48:00,
2013-10-07 16:49:00,88.8,75.5,29.86,South,180,4.0,10.2,65,0.00,,---,0.02,VWS V13.01,2013-10-07 20:49:00,
2013-10-07 16:52:00,88.8,75.5,29.86,SE,135,7.3,7.3,65,0.00,,---,0.02,VWS V13.01,2013-10-07 20:52:00,
2013-10-07 16:53:00,88.8,75.5,29.86,SE,135,3.8,7.3,65,0.00,,---,0.02,VWS V13.01,2013-10-07 20:53:00,
2013-10-07 16:54:00,88.8,75.5,29.86,SSE,158,6.2,6.2,65,0.00,,---,0.02,VWS V13.01,2013-10-07 20:54:00,
2013-10-07 16:57:00,88.8,75.5,29.86,SSE,158,4.0,4.0,65,0.00,,---,0.02,VWS V13.01,2013-10-07 20:57:00,
2013-10-07 16:58:00,88.8,75.5,29.86,South,180,6.9,6.9,65,0.00,,---,0.02,VWS V13.01,2013-10-07 20:58:00,
2013-10-07 16:59:00,88.7,75.4,29.86,SE,135,3.1,3.1,65,0.00,,---,0.02,VWS V13.01,2013-10-07 20:59:00,
2013-10-07 17:02:00,88.7,75.9,29.86,SSE,158,3.8,3.8,66,0.00,,---,0.02,VWS V13.01,2013-10-07 21:02:00,
2013-10-07 17:03:00,88.7,75.9,29.86,South,180,2.4,2.4,66,0.00,,---,0.02,VWS V13.01,2013-10-07 21:03:00,
2013-10-07 17:04:00,88.7,75.9,29.86,South,180,2.4,2.4,66,0.00,,---,0.02,VWS V13.01,2013-10-07 21:04:00,
2013-10-07 17:07:00,88.5,75.7,29.86,SE,135,3.8,3.8,66,0.00,,---,0.02,VWS V13.01,2013-10-07 21:07:00,
2013-10-07 17:08:00,88.5,75.7,29.86,SE,135,3.5,3.5,66,0.00,,---,0.02,VWS V13.01,2013-10-07 21:08:00,
2013-10-07 17:09:00,88.5,75.7,29.86,SE,135,3.5,3.5,66,0.00,,---,0.02,VWS V13.01,2013-10-07 21:09:00,
2013-10-07 17:13:00,88.5,75.7,29.86,SE,135,4.0,4.0,66,0.00,,---,0.02,VWS V13.01,2013-10-07 21:13:00,
2013-10-07 17:14:00,88.5,75.7,29.86,South,180,3.3,3.3,66,0.00,,---,0.02,VWS V13.01,2013-10-07 21:14:00,
2013-10-07 17:18:00,88.5,75.7,29.86,SE,135,6.4,6.4,66,0.00,,---,0.02,VWS V13.01,2013-10-07 21:18:00,
2013-10-07 17:19:00,88.5,75.7,29.86,SE,135,5.8,5.8,66,0.00,,---,0.02,VWS V13.01,2013-10-07 21:19:00,
2013-10-07 17:23:00,88.5,75.7,29.86,SSE,158,5.5,5.5,66,0.00,,---,0.02,VWS V13.01,2013-10-07 21:23:00,
2013-10-07 17:24:00,88.5,75.7,29.86,SSE,158,5.5,5.5,66,0.00,,---,0.02,VWS V13.01,2013-10-07 21:24:00,
2013-10-07 17:28:00,88.3,75.5,29.86,South,180,4.6,4.6,66,0.00,,---,0.02,VWS V13.01,2013-10-07 21:28:00,
2013-10-07 17:29:00,88.3,75.5,29.86,South,180,4.6,4.6,66,0.00,,---,0.02,VWS V13.01,2013-10-07 21:29:00,
2013-10-07 17:33:00,88.1,75.3,29.87,SE,135,3.8,3.8,66,0.00,,---,0.02,VWS V13.01,2013-10-07 21:33:00,
2013-10-07 17:34:00,88.1,75.3,29.87,SSE,158,3.8,3.8,66,0.00,,---,0.02,VWS V13.01,2013-10-07 21:34:00,
2013-10-07 17:38:00,88.1,75.3,29.87,SSE,158,3.5,3.5,66,0.00,,---,0.02,VWS V13.01,2013-10-07 21:38:00,
2013-10-07 17:39:00,87.9,75.1,29.87,SSE,158,2.2,2.2,66,0.00,,---,0.02,VWS V13.01,2013-10-07 21:39:00,
2013-10-07 17:43:00,87.9,75.6,29.87,South,180,4.6,4.6,67,0.00,,---,0.02,VWS V13.01,2013-10-07 21:43:00,
2013-10-07 17:44:00,87.9,75.6,29.87,SSE,158,7.3,7.3,67,0.00,,---,0.02,VWS V13.01,2013-10-07 21:44:00,
2013-10-07 17:45:00,87.9,75.6,29.87,SSE,158,7.3,7.3,67,0.00,,---,0.02,VWS V13.01,2013-10-07 21:45:00,
2013-10-07 17:48:00,87.8,75.5,29.87,SE,135,1.7,1.7,67,0.00,,---,0.02,VWS V13.01,2013-10-07 21:48:00,
2013-10-07 17:49:00,87.6,75.3,29.87,South,180,4.4,4.4,67,0.00,,---,0.02,VWS V13.01,2013-10-07 21:49:00,
2013-10-07 17:50:00,87.6,75.3,29.87,South,180,4.4,4.4,67,0.00,,---,0.02,VWS V13.01,2013-10-07 21:50:00,
2013-10-07 17:53:00,87.6,75.3,29.87,SSE,158,1.5,1.5,67,0.00,,---,0.02,VWS V13.01,2013-10-07 21:53:00,
2013-10-07 17:54:00,87.6,75.3,29.87,SSE,158,3.3,3.3,67,0.00,,---,0.02,VWS V13.01,2013-10-07 21:54:00,
2013-10-07 17:55:00,87.6,75.3,29.87,SSE,158,3.3,3.3,67,0.00,,---,0.02,VWS V13.01,2013-10-07 21:55:00,
2013-10-07 17:58:00,87.6,75.3,29.86,SSE,158,0.0,0.0,67,0.00,,---,0.02,VWS V13.01,2013-10-07 21:58:00,
2013-10-07 17:59:00,87.6,75.3,29.86,South,180,3.1,3.1,67,0.00,,---,0.02,VWS V13.01,2013-10-07 21:59:00,
2013-10-07 18:00:00,87.6,75.3,29.86,South,180,3.1,3.1,67,0.00,,---,0.02,VWS V13.01,2013-10-07 22:00:00,
2013-10-07 18:03:00,87.6,75.3,29.86,SSE,158,4.4,4.4,67,0.00,,---,0.02,VWS V13.01,2013-10-07 22:03:00,
2013-10-07 18:04:00,87.6,75.3,29.87,SSE,158,4.4,4.4,67,0.00,,---,0.02,VWS V13.01,2013-10-07 22:04:00,
2013-10-07 18:05:00,87.6,75.7,29.87,SSE,158,2.4,2.4,68,0.00,,---,0.02,VWS V13.01,2013-10-07 22:05:00,
2013-10-07 18:08:00,87.4,75.6,29.87,SSW,202,3.3,3.3,68,0.00,,---,0.02,VWS V13.01,2013-10-07 22:08:00,
2013-10-07 18:09:00,87.4,75.6,29.87,SE,135,0.6,0.6,68,0.00,,---,0.02,VWS V13.01,2013-10-07 22:09:00,
2013-10-07 18:10:00,87.4,75.6,29.87,South,180,2.0,2.0,68,0.00,,---,0.02,VWS V13.01,2013-10-07 22:10:00,
2013-10-07 18:13:00,87.2,75.4,29.87,South,180,8.9,8.9,68,0.00,,---,0.02,VWS V13.01,2013-10-07 22:13:00,
2013-10-07 18:14:00,87.2,75.4,29.87,South,180,8.9,8.9,68,0.00,,---,0.02,VWS V13.01,2013-10-07 22:14:00,
2013-10-07 18:15:00,87.0,75.2,29.87,SSW,202,2.0,2.0,68,0.00,,---,0.02,VWS V13.01,2013-10-07 22:15:00,
2013-10-07 18:19:00,87.0,75.2,29.86,SSE,158,2.4,2.4,68,0.00,,---,0.02,VWS V13.01,2013-10-07 22:19:00,
2013-10-07 18:20:00,87.0,75.2,29.86,South,180,5.8,5.8,68,0.00,,---,0.02,VWS V13.01,2013-10-07 22:20:00,
2013-10-07 18:24:00,87.0,75.2,29.87,SSE,158,3.3,3.3,68,0.00,,---,0.02,VWS V13.01,2013-10-07 22:24:00,
2013-10-07 18:25:00,87.0,75.6,29.87,SSE,158,2.4,2.4,69,0.00,,---,0.02,VWS V13.01,2013-10-07 22:25:00,
2013-10-07 18:29:00,86.9,75.5,29.86,SE,135,6.2,6.2,69,0.00,,---,0.02,VWS V13.01,2013-10-07 22:29:00,
2013-10-07 18:30:00,86.7,75.3,29.87,SSE,158,4.0,4.0,69,0.00,,---,0.02,VWS V13.01,2013-10-07 22:30:00,
2013-10-07 18:34:00,86.7,75.3,29.86,SSE,158,3.5,3.5,69,0.00,,---,0.02,VWS V13.01,2013-10-07 22:34:00,
2013-10-07 18:35:00,86.7,75.3,29.86,SSE,158,1.5,1.5,69,0.00,,---,0.02,VWS V13.01,2013-10-07 22:35:00,
2013-10-07 18:39:00,86.5,75.1,29.86,SSE,158,2.4,2.4,69,0.00,,---,0.02,VWS V13.01,2013-10-07 22:39:00,
2013-10-07 18:40:00,86.5,75.1,29.86,SSE,158,3.3,3.3,69,0.00,,---,0.02,VWS V13.01,2013-10-07 22:40:00,
2013-10-07 18:44:00,86.5,75.1,29.87,South,180,0.0,0.0,69,0.00,,---,0.02,VWS V13.01,2013-10-07 22:44:00,
2013-10-07 18:45:00,86.5,75.1,29.87,South,180,2.2,2.2,69,0.00,,---,0.02,VWS V13.01,2013-10-07 22:45:00,
2013-10-07 18:46:00,86.5,75.1,29.87,South,180,2.2,2.2,69,0.00,,---,0.02,VWS V13.01,2013-10-07 22:46:00,
2013-10-07 18:49:00,86.3,74.9,29.87,SSE,158,4.2,4.2,69,0.00,,---,0.02,VWS V13.01,2013-10-07 22:49:00,
2013-10-07 18:50:00,86.3,74.9,29.87,SSE,158,4.4,4.4,69,0.00,,---,0.02,VWS V13.01,2013-10-07 22:50:00,
2013-10-07 18:51:00,86.3,74.9,29.87,SSE,158,4.4,4.4,69,0.00,,---,0.02,VWS V13.01,2013-10-07 22:51:00,
2013-10-07 18:54:00,86.3,74.9,29.87,ESE,112,6.7,6.7,69,0.00,,---,0.02,VWS V13.01,2013-10-07 22:54:00,
2013-10-07 18:55:00,86.3,74.9,29.87,SSE,158,5.3,5.3,69,0.00,,---,0.02,VWS V13.01,2013-10-07 22:55:00,
2013-10-07 18:56:00,86.3,75.4,29.87,SSE,158,3.5,3.5,70,0.00,,---,0.02,VWS V13.01,2013-10-07 22:56:00,
2013-10-07 18:59:00,86.1,75.2,29.87,SSE,158,1.5,1.5,70,0.00,,---,0.02,VWS V13.01,2013-10-07 22:59:00,
2013-10-07 19:00:00,86.1,75.2,29.87,SSE,158,1.5,1.5,70,0.00,,---,0.02,VWS V13.01,2013-10-07 23:00:00,
2013-10-07 19:01:00,86.1,75.2,29.87,SE,135,8.2,8.2,70,0.00,,---,0.02,VWS V13.01,2013-10-07 23:01:00,
2013-10-07 19:04:00,86.1,75.2,29.87,SSE,158,3.5,3.5,70,0.00,,---,0.02,VWS V13.01,2013-10-07 23:04:00,
2013-10-07 19:05:00,86.1,75.2,29.87,SSE,158,0.0,0.0,70,0.00,,---,0.02,VWS V13.01,2013-10-07 23:05:00,
2013-10-07 19:06:00,86.1,75.2,29.87,SSE,158,5.3,5.3,70,0.00,,---,0.02,VWS V13.01,2013-10-07 23:06:00,
2013-10-07 19:09:00,86.0,75.1,29.87,South,180,2.0,2.0,70,0.00,,---,0.02,VWS V13.01,2013-10-07 23:09:00,
2013-10-07 19:10:00,86.0,75.1,29.87,South,180,0.0,0.0,70,0.00,,---,0.02,VWS V13.01,2013-10-07 23:10:00,
2013-10-07 19:11:00,86.0,75.1,29.87,South,180,2.2,2.2,70,0.00,,---,0.02,VWS V13.01,2013-10-07 23:11:00,
2013-10-07 19:14:00,85.8,74.9,29.87,SE,135,1.7,1.7,70,0.00,,---,0.02,VWS V13.01,2013-10-07 23:14:00,
2013-10-07 19:15:00,85.8,74.9,29.87,South,180,5.1,5.1,70,0.00,,---,0.02,VWS V13.01,2013-10-07 23:15:00,
2013-10-07 19:16:00,85.8,75.3,29.88,South,180,5.8,5.8,71,0.00,,---,0.02,VWS V13.01,2013-10-07 23:16:00,
2013-10-07 19:19:00,85.8,75.3,29.88,South,180,2.6,2.6,71,0.00,,---,0.02,VWS V13.01,2013-10-07 23:19:00,
2013-10-07 19:20:00,85.8,75.3,29.88,SSE,158,2.4,2.4,71,0.00,,---,0.02,VWS V13.01,2013-10-07 23:20:00,
2013-10-07 19:21:00,85.8,75.3,29.88,SSE,158,2.4,2.4,71,0.00,,---,0.02,VWS V13.01,2013-10-07 23:21:00,
2013-10-07 19:24:00,85.8,75.3,29.88,South,180,2.4,2.4,71,0.00,,---,0.02,VWS V13.01,2013-10-07 23:24:00,
2013-10-07 19:25:00,85.8,75.3,29.88,South,180,2.4,2.4,71,0.00,,---,0.02,VWS V13.01,2013-10-07 23:25:00,
2013-10-07 19:26:00,85.8,75.3,29.88,South,180,2.0,2.0,71,0.00,,---,0.02,VWS V13.01,2013-10-07 23:26:00,
2013-10-07 19:29:00,85.8,75.3,29.88,SSW,202,0.0,0.0,71,0.00,,---,0.02,VWS V13.01,2013-10-07 23:29:00,
2013-10-07 19:30:00,85.8,75.3,29.88,SSW,202,0.0,0.0,71,0.00,,---,0.02,VWS V13.01,2013-10-07 23:30:00,
2013-10-07 19:31:00,85.8,75.3,29.88,SSE,158,0.0,0.0,71,0.00,,---,0.02,VWS V13.01,2013-10-07 23:31:00,
2013-10-07 19:34:00,85.8,75.3,29.88,South,180,0.0,0.0,71,0.00,,---,0.02,VWS V13.01,2013-10-07 23:34:00,
2013-10-07 19:35:00,85.8,75.3,29.88,South,180,0.0,0.0,71,0.00,,---,0.02,VWS V13.01,2013-10-07 23:35:00,
2013-10-07 19:36:00,85.8,75.3,29.89,SSE,158,4.4,4.4,71,0.00,,---,0.02,VWS V13.01,2013-10-07 23:36:00,
2013-10-07 19:39:00,85.6,75.5,29.89,SSE,158,2.9,2.9,72,0.00,,---,0.02,VWS V13.01,2013-10-07 23:39:00,
2013-10-07 19:40:00,85.6,75.5,29.89,SSE,158,2.9,2.9,72,0.00,,---,0.02,VWS V13.01,2013-10-07 23:40:00,
2013-10-07 19:41:00,85.6,75.5,29.88,South,180,4.9,4.9,72,0.00,,---,0.02,VWS V13.01,2013-10-07 23:41:00,
2013-10-07 19:44:00,85.6,75.5,29.88,SE,135,3.5,3.5,72,0.00,,---,0.02,VWS V13.01,2013-10-07 23:44:00,
2013-10-07 19:45:00,85.6,75.5,29.88,SE,135,3.5,3.5,72,0.00,,---,0.02,VWS V13.01,2013-10-07 23:45:00,
2013-10-07 19:46:00,85.6,75.5,29.89,SSE,158,1.5,1.5,72,0.00,,---,0.02,VWS V13.01,2013-10-07 23:46:00,
2013-10-07 19:49:00,85.6,75.5,29.89,SSE,158,4.0,4.0,72,0.00,,---,0.02,VWS V13.01,2013-10-07 23:49:00,
2013-10-07 19:50:00,85.6,75.5,29.89,SSE,158,0.6,0.6,72,0.00,,---,0.02,VWS V13.01,2013-10-07 23:50:00,
2013-10-07 19:51:00,85.6,75.5,29.89,SSE,158,0.0,0.0,72,0.00,,---,0.02,VWS V13.01,2013-10-07 23:51:00,
2013-10-07 19:54:00,85.6,75.5,29.89,SE,135,0.0,0.0,72,0.00,,---,0.02,VWS V13.01,2013-10-07 23:54:00,
2013-10-07 19:55:00,85.6,75.5,29.89,South,180,6.0,6.0,72,0.00,,---,0.02,VWS V13.01,2013-10-07 23:55:00,
2013-10-07 19:56:00,85.6,75.5,29.89,South,180,3.5,3.5,72,0.00,,---,0.02,VWS V13.01,2013-10-07 23:56:00,
2013-10-07 19:57:00,85.6,75.5,29.89,South,180,3.5,3.5,72,0.00,,---,0.02,VWS V13.01,2013-10-07 23:57:00,
2013-10-07 19:59:00,85.4,75.8,29.89,SSE,158,4.9,4.9,73,0.00,,---,0.02,VWS V13.01,2013-10-07 23:59:00,
2013-10-07 20:00:00,85.4,75.8,29.89,SSE,158,2.0,2.0,73,0.00,,---,0.02,VWS V13.01,2013-10-08 00:00:00,
2013-10-07 20:01:00,85.2,75.6,29.89,SE,135,4.4,4.4,73,0.00,,---,0.02,VWS V13.01,2013-10-08 00:01:00,
2013-10-07 20:02:00,85.2,75.6,29.89,SE,135,4.4,4.4,73,0.00,,---,0.02,VWS V13.01,2013-10-08 00:02:00,
2013-10-07 20:04:00,85.2,75.6,29.89,South,180,2.2,2.2,73,0.00,,---,0.02,VWS V13.01,2013-10-08 00:04:00,
2013-10-07 20:05:00,85.2,75.6,29.89,SE,135,2.0,2.0,73,0.00,,---,0.02,VWS V13.01,2013-10-08 00:05:00,
2013-10-07 20:06:00,85.2,75.6,29.89,SE,135,2.0,2.0,73,0.00,,---,0.02,VWS V13.01,2013-10-08 00:06:00,
2013-10-07 20:07:00,85.2,75.6,29.89,SE,135,0.0,0.0,73,0.00,,---,0.02,VWS V13.01,2013-10-08 00:07:00,
2013-10-07 20:10:00,85.2,75.6,29.90,SE,135,0.0,0.0,73,0.00,,---,0.02,VWS V13.01,2013-10-08 00:10:00,
2013-10-07 20:11:00,85.2,75.6,29.90,SE,135,0.0,0.0,73,0.00,,---,0.02,VWS V13.01,2013-10-08 00:11:00,
2013-10-07 20:12:00,85.2,75.6,29.90,South,180,0.0,0.0,73,0.00,,---,0.02,VWS V13.01,2013-10-08 00:12:00,
2013-10-07 20:15:00,85.2,75.6,29.90,South,180,1.7,1.7,73,0.00,,---,0.02,VWS V13.01,2013-10-08 00:15:00,
2013-10-07 20:16:00,85.2,75.6,29.90,South,180,0.0,0.0,73,0.00,,---,0.02,VWS V13.01,2013-10-08 00:16:00,
2013-10-07 20:17:00,85.2,75.6,29.90,SW,225,0.0,0.0,73,0.00,,---,0.02,VWS V13.01,2013-10-08 00:17:00,
2013-10-07 20:20:00,85.1,75.5,29.90,SSW,202,0.0,0.0,73,0.00,,---,0.02,VWS V13.01,2013-10-08 00:20:00,
2013-10-07 20:21:00,85.1,75.5,29.90,South,180,0.0,0.0,73,0.00,,---,0.02,VWS V13.01,2013-10-08 00:21:00,
2013-10-07 20:22:00,85.1,75.5,29.90,South,180,0.0,0.0,73,0.00,,---,0.02,VWS V13.01,2013-10-08 00:22:00,
2013-10-07 20:25:00,84.9,75.3,29.90,South,180,0.0,0.0,73,0.00,,---,0.02,VWS V13.01,2013-10-08 00:25:00,
2013-10-07 20:26:00,85.1,75.5,29.90,South,180,0.8,0.8,73,0.00,,---,0.02,VWS V13.01,2013-10-08 00:26:00,
2013-10-07 20:27:00,84.9,75.3,29.90,SE,135,0.0,0.0,73,0.00,,---,0.02,VWS V13.01,2013-10-08 00:27:00,
2013-10-07 20:30:00,84.9,75.3,29.90,SW,225,0.0,0.0,73,0.00,,---,0.02,VWS V13.01,2013-10-08 00:30:00,
2013-10-07 20:31:00,84.9,75.3,29.90,SSW,202,0.0,0.0,73,0.00,,---,0.02,VWS V13.01,2013-10-08 00:31:00,
2013-10-07 20:32:00,84.9,75.3,29.91,SSW,202,0.0,0.0,73,0.00,,---,0.02,VWS V13.01,2013-10-08 00:32:00,
2013-10-07 20:35:00,84.9,75.3,29.90,SW,225,1.1,1.1,73,0.00,,---,0.02,VWS V13.01,2013-10-08 00:35:00,
2013-10-07 20:36:00,84.9,75.3,29.91,SSW,202,0.0,0.0,73,0.00,,---,0.02,VWS V13.01,2013-10-08 00:36:00,
2013-10-07 20:37:00,84.9,75.3,29.91,SSW,202,1.3,1.3,73,0.00,,---,0.02,VWS V13.01,2013-10-08 00:37:00,
2013-10-07 20:40:00,84.9,75.3,29.91,SW,225,0.0,0.0,73,0.00,,---,0.02,VWS V13.01,2013-10-08 00:40:00,
2013-10-07 20:41:00,84.9,75.3,29.91,South,180,0.0,0.0,73,0.00,,---,0.02,VWS V13.01,2013-10-08 00:41:00,
2013-10-07 20:42:00,84.7,75.1,29.91,South,180,0.0,0.0,73,0.00,,---,0.02,VWS V13.01,2013-10-08 00:42:00,
2013-10-07 20:45:00,84.7,75.1,29.91,SSE,158,0.0,0.0,73,0.00,,---,0.02,VWS V13.01,2013-10-08 00:45:00,
2013-10-07 20:46:00,84.7,75.1,29.92,South,180,0.0,0.0,73,0.00,,---,0.02,VWS V13.01,2013-10-08 00:46:00,
2013-10-07 20:47:00,84.7,75.1,29.91,South,180,0.0,0.0,73,0.00,,---,0.02,VWS V13.01,2013-10-08 00:47:00,
2013-10-07 20:48:00,84.7,75.1,29.91,South,180,0.0,0.0,73,0.00,,---,0.02,VWS V13.01,2013-10-08 00:48:00,
2013-10-07 20:50:00,84.7,75.1,29.91,WSW,248,0.0,0.0,73,0.00,,---,0.02,VWS V13.01,2013-10-08 00:50:00,
2013-10-07 20:51:00,84.7,75.1,29.91,WSW,248,0.0,0.0,73,0.00,,---,0.02,VWS V13.01,2013-10-08 00:51:00,
2013-10-07 20:52:00,84.7,75.1,29.91,North,0,0.0,0.0,73,0.00,,---,0.02,VWS V13.01,2013-10-08 00:52:00,
2013-10-07 20:53:00,84.7,75.1,29.91,North,0,0.0,0.0,73,0.00,,---,0.02,VWS V13.01,2013-10-08 00:53:00,
2013-10-07 20:55:00,84.7,75.1,29.92,SW,225,1.3,1.3,73,0.00,,---,0.02,VWS V13.01,2013-10-08 00:55:00,
2013-10-07 20:56:00,84.7,75.1,29.92,SW,225,1.3,1.3,73,0.00,,---,0.02,VWS V13.01,2013-10-08 00:56:00,
2013-10-07 20:57:00,84.7,75.5,29.92,South,180,0.0,0.0,74,0.00,,---,0.02,VWS V13.01,2013-10-08 00:57:00,
2013-10-07 20:58:00,84.7,75.5,29.92,South,180,0.0,0.0,74,0.00,,---,0.02,VWS V13.01,2013-10-08 00:58:00,
2013-10-07 21:00:00,84.7,75.5,29.92,SSW,202,0.0,0.0,74,0.00,,---,0.02,VWS V13.01,2013-10-08 01:00:00,
2013-10-07 21:01:00,84.7,75.5,29.92,SSW,202,0.0,0.0,74,0.00,,---,0.02,VWS V13.01,2013-10-08 01:01:00,
2013-10-07 21:03:00,84.7,75.5,29.92,SSW,202,0.0,0.0,74,0.00,,---,0.02,VWS V13.01,2013-10-08 01:03:00,
2013-10-07 21:05:00,84.7,75.5,29.92,South,180,0.0,0.0,74,0.00,,---,0.02,VWS V13.01,2013-10-08 01:05:00,
2013-10-07 21:06:00,84.7,75.5,29.92,South,180,0.0,0.0,74,0.00,,---,0.02,VWS V13.01,2013-10-08 01:06:00,
2013-10-07 21:08:00,84.7,75.5,29.92,SSW,202,0.0,0.0,74,0.00,,---,0.02,VWS V13.01,2013-10-08 01:08:00,
2013-10-07 21:10:00,84.7,75.5,29.92,SSW,202,0.0,0.0,74,0.00,,---,0.02,VWS V13.01,2013-10-08 01:10:00,
2013-10-07 21:11:00,84.7,75.5,29.92,SSW,202,0.0,0.0,74,0.00,,---,0.02,VWS V13.01,2013-10-08 01:11:00,
2013-10-07 21:13:00,84.7,75.5,29.92,SSW,202,0.0,0.0,74,0.00,,---,0.02,VWS V13.01,2013-10-08 01:13:00,
2013-10-07 21:16:00,84.7,75.5,29.92,South,180,0.0,0.0,74,0.00,,---,0.02,VWS V13.01,2013-10-08 01:16:00,
2013-10-07 21:18:00,84.7,75.5,29.92,South,180,1.3,1.3,74,0.00,,---,0.02,VWS V13.01,2013-10-08 01:18:00,
2013-10-07 21:19:00,84.7,75.5,29.92,South,180,0.0,0.0,74,0.00,,---,0.02,VWS V13.01,2013-10-08 01:19:00,
2013-10-07 21:21:00,84.7,75.5,29.92,SSE,158,0.0,0.0,74,0.00,,---,0.02,VWS V13.01,2013-10-08 01:21:00,
2013-10-07 21:22:00,84.7,75.5,29.92,SSE,158,0.0,0.0,74,0.00,,---,0.02,VWS V13.01,2013-10-08 01:22:00,
2013-10-07 21:23:00,84.7,75.5,29.92,SSW,202,2.0,2.0,74,0.00,,---,0.02,VWS V13.01,2013-10-08 01:23:00,
2013-10-07 21:24:00,84.7,75.5,29.92,South,180,0.0,0.0,74,0.00,,---,0.02,VWS V13.01,2013-10-08 01:24:00,
2013-10-07 21:26:00,84.7,75.5,29.92,SSW,202,0.0,0.0,74,0.00,,---,0.02,VWS V13.01,2013-10-08 01:26:00,
2013-10-07 21:27:00,84.7,75.5,29.92,SSW,202,0.0,0.0,74,0.00,,---,0.02,VWS V13.01,2013-10-08 01:27:00,
2013-10-07 21:28:00,84.5,75.3,29.92,South,180,0.0,0.0,74,0.00,,---,0.02,VWS V13.01,2013-10-08 01:28:00,
2013-10-07 21:29:00,84.7,75.5,29.92,SSW,202,2.0,2.0,74,0.00,,---,0.02,VWS V13.01,2013-10-08 01:29:00,
2013-10-07 21:31:00,84.5,75.3,29.92,SSE,158,2.0,2.0,74,0.00,,---,0.02,VWS V13.01,2013-10-08 01:31:00,
2013-10-07 21:32:00,84.7,75.5,29.93,SSW,202,0.0,0.0,74,0.00,,---,0.02,VWS V13.01,2013-10-08 01:32:00,
2013-10-07 21:33:00,84.7,75.5,29.93,SSW,202,0.0,0.0,74,0.00,,---,0.02,VWS V13.01,2013-10-08 01:33:00,
2013-10-07 21:34:00,84.5,75.3,29.93,South,180,0.0,0.0,74,0.00,,---,0.02,VWS V13.01,2013-10-08 01:34:00,
2013-10-07 21:36:00,84.5,75.3,29.93,South,180,2.0,2.0,74,0.00,,---,0.02,VWS V13.01,2013-10-08 01:36:00,
2013-10-07 21:37:00,84.7,75.5,29.93,South,180,0.0,0.0,74,0.00,,---,0.02,VWS V13.01,2013-10-08 01:37:00,
2013-10-07 21:38:00,84.7,75.5,29.92,SSW,202,0.0,0.0,74,0.00,,---,0.02,VWS V13.01,2013-10-08 01:38:00,
2013-10-07 21:40:00,84.7,75.5,29.92,SSE,158,0.0,0.0,74,0.00,,---,0.02,VWS V13.01,2013-10-08 01:40:00,
2013-10-07 21:41:00,84.7,75.9,29.92,SSE,158,0.0,0.0,75,0.00,,---,0.02,VWS V13.01,2013-10-08 01:41:00,
2013-10-07 21:42:00,84.7,75.9,29.93,South,180,1.3,1.3,75,0.00,,---,0.02,VWS V13.01,2013-10-08 01:42:00,
2013-10-07 21:43:00,84.7,75.9,29.93,SSE,158,0.0,0.0,75,0.00,,---,0.02,VWS V13.01,2013-10-08 01:43:00,
2013-10-07 21:45:00,84.7,75.9,29.93,South,180,0.0,0.0,75,0.00,,---,0.02,VWS V13.01,2013-10-08 01:45:00,
2013-10-07 21:46:00,84.7,75.9,29.93,South,180,0.0,0.0,75,0.00,,---,0.02,VWS V13.01,2013-10-08 01:46:00,
2013-10-07 21:47:00,84.5,75.7,29.93,South,180,0.0,0.0,75,0.00,,---,0.02,VWS V13.01,2013-10-08 01:47:00,
2013-10-07 21:48:00,84.7,75.9,29.93,South,180,0.0,0.0,75,0.00,,---,0.02,VWS V13.01,2013-10-08 01:48:00,
2013-10-07 21:49:00,84.5,75.7,29.93,South,180,2.6,2.6,75,0.00,,---,0.02,VWS V13.01,2013-10-08 01:49:00,
2013-10-07 21:50:00,84.5,75.7,29.93,South,180,2.6,2.6,75,0.00,,---,0.02,VWS V13.01,2013-10-08 01:50:00,
2013-10-07 21:51:00,84.5,75.7,29.93,South,180,2.6,2.6,75,0.00,,---,0.02,VWS V13.01,2013-10-08 01:51:00,
2013-10-07 21:52:00,84.5,75.7,29.92,South,180,0.0,0.0,75,0.00,,---,0.02,VWS V13.01,2013-10-08 01:52:00,
2013-10-07 21:53:00,84.5,75.7,29.92,South,180,1.3,1.3,75,0.00,,---,0.02,VWS V13.01,2013-10-08 01:53:00,
2013-10-07 21:54:00,84.5,75.7,29.92,SW,225,0.0,0.0,75,0.00,,---,0.02,VWS V13.01,2013-10-08 01:54:00,
2013-10-07 21:55:00,84.5,75.7,29.92,South,180,3.1,3.1,75,0.00,,---,0.02,VWS V13.01,2013-10-08 01:55:00,
2013-10-07 21:56:00,84.5,75.7,29.92,SSE,158,1.3,1.3,75,0.00,,---,0.02,VWS V13.01,2013-10-08 01:56:00,
2013-10-07 21:58:00,84.5,75.7,29.92,South,180,2.2,2.2,75,0.00,,---,0.02,VWS V13.01,2013-10-08 01:58:00,
2013-10-07 21:59:00,84.5,75.7,29.93,SE,135,0.0,0.0,75,0.00,,---,0.02,VWS V13.01,2013-10-08 01:59:00,
2013-10-07 22:00:00,84.5,75.7,29.92,South,180,1.3,1.3,75,0.00,,---,0.02,VWS V13.01,2013-10-08 02:00:00,
2013-10-07 22:01:00,84.5,75.7,29.92,SSW,202,0.0,0.0,75,0.00,,---,0.02,VWS V13.01,2013-10-08 02:01:00,
2013-10-07 22:02:00,84.5,75.7,29.92,SSW,202,0.0,0.0,75,0.00,,---,0.02,VWS V13.01,2013-10-08 02:02:00,
2013-10-07 22:03:00,84.5,75.7,29.92,SSW,202,1.7,1.7,75,0.00,,---,0.02,VWS V13.01,2013-10-08 02:03:00,
2013-10-07 22:04:00,84.5,75.7,29.93,South,180,1.5,1.5,75,0.00,,---,0.02,VWS V13.01,2013-10-08 02:04:00,
2013-10-07 22:05:00,84.3,75.5,29.93,South,180,2.0,2.0,75,0.00,,---,0.02,VWS V13.01,2013-10-08 02:05:00,
2013-10-07 22:06:00,84.3,75.5,29.93,South,180,0.0,0.0,75,0.00,,---,0.02,VWS V13.01,2013-10-08 02:06:00,
2013-10-07 22:07:00,84.3,75.5,29.93,South,180,0.0,0.0,75,0.00,,---,0.02,VWS V13.01,2013-10-08 02:07:00,
2013-10-07 22:08:00,84.3,75.5,29.93,SSW,202,0.8,0.8,75,0.00,,---,0.02,VWS V13.01,2013-10-08 02:08:00,
2013-10-07 22:09:00,84.3,75.5,29.93,South,180,0.0,0.0,75,0.00,,---,0.02,VWS V13.01,2013-10-08 02:09:00,
2013-10-07 22:10:00,84.3,75.5,29.93,SSW,202,1.5,1.5,75,0.00,,---,0.02,VWS V13.01,2013-10-08 02:10:00,
2013-10-07 22:11:00,84.3,75.5,29.93,South,180,0.0,0.0,75,0.00,,---,0.02,VWS V13.01,2013-10-08 02:11:00,
2013-10-07 22:12:00,84.3,75.5,29.93,South,180,0.0,0.0,75,0.00,,---,0.02,VWS V13.01,2013-10-08 02:12:00,
2013-10-07 22:13:00,84.3,75.5,29.93,SSE,158,1.1,1.1,75,0.00,,---,0.02,VWS V13.01,2013-10-08 02:13:00,
2013-10-07 22:15:00,84.3,75.9,29.93,South,180,0.0,0.0,76,0.00,,---,0.02,VWS V13.01,2013-10-08 02:15:00,
2013-10-07 22:16:00,84.2,75.8,29.93,South,180,0.0,0.0,76,0.00,,---,0.02,VWS V13.01,2013-10-08 02:16:00,
2013-10-07 22:17:00,84.2,75.8,29.93,South,180,0.0,0.0,76,0.00,,---,0.02,VWS V13.01,2013-10-08 02:17:00,
2013-10-07 22:18:00,84.2,75.8,29.93,South,180,0.0,0.0,76,0.00,,---,0.02,VWS V13.01,2013-10-08 02:18:00,
2013-10-07 22:20:00,84.2,75.8,29.93,South,180,1.3,1.3,76,0.00,,---,0.02,VWS V13.01,2013-10-08 02:20:00,
2013-10-07 22:22:00,84.0,75.6,29.93,SW,225,0.0,0.0,76,0.00,,---,0.02,VWS V13.01,2013-10-08 02:22:00,
2013-10-07 22:23:00,84.0,75.6,29.93,SSW,202,0.0,0.0,76,0.00,,---,0.02,VWS V13.01,2013-10-08 02:23:00,
2013-10-07 22:25:00,84.0,75.6,29.93,SSW,202,0.0,0.0,76,0.00,,---,0.02,VWS V13.01,2013-10-08 02:25:00,
2013-10-07 22:27:00,84.0,75.6,29.93,South,180,0.0,0.0,76,0.00,,---,0.02,VWS V13.01,2013-10-08 02:27:00,
2013-10-07 22:28:00,84.0,75.6,29.93,South,180,0.0,0.0,76,0.00,,---,0.02,VWS V13.01,2013-10-08 02:28:00,
2013-10-07 22:29:00,84.0,75.6,29.93,South,180,0.0,0.0,76,0.00,,---,0.02,VWS V13.01,2013-10-08 02:29:00,
2013-10-07 22:30:00,84.0,75.6,29.93,SSW,202,0.0,0.0,76,0.00,,---,0.02,VWS V13.01,2013-10-08 02:30:00,
2013-10-07 22:32:00,84.0,75.6,29.93,SSE,158,0.0,0.0,76,0.00,,---,0.02,VWS V13.01,2013-10-08 02:32:00,
2013-10-07 22:33:00,84.0,75.6,29.92,South,180,0.0,0.0,76,0.00,,---,0.02,VWS V13.01,2013-10-08 02:33:00,
2013-10-07 22:34:00,84.0,75.6,29.93,SSE,158,0.0,0.0,76,0.00,,---,0.02,VWS V13.01,2013-10-08 02:34:00,
2013-10-07 22:35:00,84.0,75.6,29.93,SW,225,0.0,0.0,76,0.00,,---,0.02,VWS V13.01,2013-10-08 02:35:00,
2013-10-07 22:37:00,84.0,75.6,29.93,SSW,202,0.0,0.0,76,0.00,,---,0.02,VWS V13.01,2013-10-08 02:37:00,
2013-10-07 22:38:00,84.0,75.6,29.93,SW,225,0.0,0.0,76,0.00,,---,0.02,VWS V13.01,2013-10-08 02:38:00,
2013-10-07 22:39:00,84.0,75.6,29.93,SW,225,2.4,2.4,76,0.00,,---,0.02,VWS V13.01,2013-10-08 02:39:00,
2013-10-07 22:40:00,84.0,75.6,29.93,SSW,202,0.0,0.0,76,0.00,,---,0.02,VWS V13.01,2013-10-08 02:40:00,
2013-10-07 22:41:00,84.0,75.6,29.93,SSW,202,0.0,0.0,76,0.00,,---,0.02,VWS V13.01,2013-10-08 02:41:00,
2013-10-07 22:42:00,83.8,75.4,29.93,WSW,248,0.0,0.0,76,0.00,,---,0.02,VWS V13.01,2013-10-08 02:42:00,
2013-10-07 22:43:00,83.8,75.4,29.93,South,180,0.0,0.0,76,0.00,,---,0.02,VWS V13.01,2013-10-08 02:43:00,
2013-10-07 22:44:00,83.8,75.4,29.93,SSW,202,0.0,0.0,76,0.00,,---,0.02,VWS V13.01,2013-10-08 02:44:00,
2013-10-07 22:45:00,83.8,75.4,29.93,South,180,1.1,1.1,76,0.00,,---,0.02,VWS V13.01,2013-10-08 02:45:00,
2013-10-07 22:46:00,83.8,75.4,29.93,SSE,158,0.0,0.0,76,0.00,,---,0.02,VWS V13.01,2013-10-08 02:46:00,
2013-10-07 22:47:00,83.8,75.4,29.93,SSE,158,0.0,0.0,76,0.00,,---,0.02,VWS V13.01,2013-10-08 02:47:00,
2013-10-07 22:48:00,83.8,75.4,29.93,South,180,2.2,2.2,76,0.00,,---,0.02,VWS V13.01,2013-10-08 02:48:00,
2013-10-07 22:49:00,83.8,75.4,29.93,South,180,0.0,0.0,76,0.00,,---,0.02,VWS V13.01,2013-10-08 02:49:00,
2013-10-07 22:51:00,83.8,75.8,29.93,WSW,248,0.0,0.0,77,0.00,,---,0.02,VWS V13.01,2013-10-08 02:51:00,
2013-10-07 22:52:00,83.8,75.8,29.92,South,180,0.0,0.0,77,0.00,,---,0.02,VWS V13.01,2013-10-08 02:52:00,
2013-10-07 22:53:00,83.8,75.8,29.93,SW,225,0.0,0.0,77,0.00,,---,0.02,VWS V13.01,2013-10-08 02:53:00,
2013-10-07 22:54:00,83.6,75.6,29.93,South,180,0.0,0.0,77,0.00,,---,0.02,VWS V13.01,2013-10-08 02:54:00,
2013-10-07 22:56:00,83.6,75.6,29.93,SSW,202,0.0,0.0,77,0.00,,---,0.02,VWS V13.01,2013-10-08 02:56:00,
2013-10-07 22:57:00,83.6,75.6,29.93,SSW,202,0.0,0.0,77,0.00,,---,0.02,VWS V13.01,2013-10-08 02:57:00,
2013-10-07 22:58:00,83.6,75.6,29.92,South,180,0.0,0.0,77,0.00,,---,0.02,VWS V13.01,2013-10-08 02:58:00,
2013-10-07 22:59:00,83.6,75.6,29.92,South,180,0.0,0.0,77,0.00,,---,0.02,VWS V13.01,2013-10-08 02:59:00,
2013-10-07 23:01:00,83.6,75.6,29.93,South,180,0.0,0.0,77,0.00,,---,0.02,VWS V13.01,2013-10-08 03:01:00,
2013-10-07 23:02:00,83.6,75.6,29.93,SSW,202,0.0,0.0,77,0.00,,---,0.02,VWS V13.01,2013-10-08 03:02:00,
2013-10-07 23:03:00,83.6,75.6,29.92,SSW,202,0.0,0.0,77,0.00,,---,0.02,VWS V13.01,2013-10-08 03:03:00,
2013-10-07 23:04:00,83.6,75.6,29.93,SW,225,0.0,0.0,77,0.00,,---,0.02,VWS V13.01,2013-10-08 03:04:00,
2013-10-07 23:06:00,83.6,75.6,29.93,WSW,248,0.0,0.0,77,0.00,,---,0.02,VWS V13.01,2013-10-08 03:06:00,
2013-10-07 23:07:00,83.6,75.6,29.93,SSW,202,0.0,0.0,77,0.00,,---,0.02,VWS V13.01,2013-10-08 03:07:00,
2013-10-07 23:08:00,83.6,75.6,29.93,SSW,202,0.0,0.0,77,0.00,,---,0.02,VWS V13.01,2013-10-08 03:08:00,
2013-10-07 23:09:00,83.4,75.4,29.93,South,180,0.0,0.0,77,0.00,,---,0.02,VWS V13.01,2013-10-08 03:09:00,
2013-10-07 23:11:00,83.4,75.4,29.93,SW,225,0.0,0.0,77,0.00,,---,0.02,VWS V13.01,2013-10-08 03:11:00,
2013-10-07 23:12:00,83.4,75.4,29.93,SW,225,0.0,0.0,77,0.00,,---,0.02,VWS V13.01,2013-10-08 03:12:00,
2013-10-07 23:13:00,83.4,75.4,29.93,SW,225,0.0,0.0,77,0.00,,---,0.02,VWS V13.01,2013-10-08 03:13:00,
2013-10-07 23:15:00,83.4,75.4,29.93,WSW,248,0.0,0.0,77,0.00,,---,0.02,VWS V13.01,2013-10-08 03:15:00,
2013-10-07 23:16:00,83.4,75.4,29.92,WSW,248,0.0,0.0,77,0.00,,---,0.02,VWS V13.01,2013-10-08 03:16:00,
2013-10-07 23:17:00,83.4,75.4,29.92,WSW,248,0.0,0.0,77,0.00,,---,0.02,VWS V13.01,2013-10-08 03:17:00,
2013-10-07 23:19:00,83.4,75.4,29.92,SSW,202,0.0,0.0,77,0.00,,---,0.02,VWS V13.01,2013-10-08 03:19:00,
2013-10-07 23:20:00,83.4,75.4,29.92,SW,225,0.0,0.0,77,0.00,,---,0.02,VWS V13.01,2013-10-08 03:20:00,
2013-10-07 23:21:00,83.4,75.4,29.92,SW,225,0.0,0.0,77,0.00,,---,0.02,VWS V13.01,2013-10-08 03:21:00,
2013-10-07 23:22:00,83.4,75.4,29.92,SSW,202,1.3,1.3,77,0.00,,---,0.02,VWS V13.01,2013-10-08 03:22:00,
2013-10-07 23:23:00,83.4,75.4,29.92,SW,225,0.0,0.0,77,0.00,,---,0.02,VWS V13.01,2013-10-08 03:23:00,
2013-10-07 23:25:00,83.4,75.4,29.93,SSW,202,0.0,0.0,77,0.00,,---,0.02,VWS V13.01,2013-10-08 03:25:00,
2013-10-07 23:26:00,83.4,75.4,29.93,SSW,202,0.0,0.0,77,0.00,,---,0.02,VWS V13.01,2013-10-08 03:26:00,
2013-10-07 23:27:00,83.4,75.4,29.93,SSW,202,0.0,0.0,77,0.00,,---,0.02,VWS V13.01,2013-10-08 03:27:00,
2013-10-07 23:29:00,83.4,75.4,29.92,South,180,0.0,0.0,77,0.00,,---,0.02,VWS V13.01,2013-10-08 03:29:00,
2013-10-07 23:30:00,83.3,75.3,29.93,SSW,202,0.8,0.8,77,0.00,,---,0.02,VWS V13.01,2013-10-08 03:30:00,
2013-10-07 23:31:00,83.3,75.7,29.92,SW,225,2.0,2.0,78,0.00,,---,0.02,VWS V13.01,2013-10-08 03:31:00,
2013-10-07 23:32:00,83.3,75.7,29.92,SW,225,0.0,0.0,78,0.00,,---,0.02,VWS V13.01,2013-10-08 03:32:00,
2013-10-07 23:34:00,83.3,75.7,29.92,SW,225,2.0,2.0,78,0.00,,---,0.02,VWS V13.01,2013-10-08 03:34:00,
2013-10-07 23:35:00,83.3,75.7,29.92,SSW,202,0.0,0.0,78,0.00,,---,0.02,VWS V13.01,2013-10-08 03:35:00,
2013-10-07 23:37:00,83.3,75.7,29.92,SSW,202,1.3,1.3,78,0.00,,---,0.02,VWS V13.01,2013-10-08 03:37:00,
2013-10-07 23:38:00,83.3,75.7,29.92,South,180,0.0,0.0,78,0.00,,---,0.02,VWS V13.01,2013-10-08 03:38:00,
2013-10-07 23:39:00,83.3,75.7,29.92,South,180,2.0,2.0,78,0.00,,---,0.02,VWS V13.01,2013-10-08 03:39:00,
2013-10-07 23:41:00,83.3,75.7,29.92,South,180,0.0,0.0,78,0.00,,---,0.02,VWS V13.01,2013-10-08 03:41:00,
2013-10-07 23:42:00,83.3,75.7,29.92,SSE,158,3.3,3.3,78,0.00,,---,0.02,VWS V13.01,2013-10-08 03:42:00,
2013-10-07 23:43:00,83.3,75.7,29.92,SSE,158,3.3,3.3,78,0.00,,---,0.02,VWS V13.01,2013-10-08 03:43:00,
2013-10-07 23:44:00,83.3,75.7,29.93,South,180,0.8,0.8,78,0.00,,---,0.02,VWS V13.01,2013-10-08 03:44:00,
2013-10-07 23:46:00,83.3,75.7,29.93,South,180,0.8,0.8,78,0.00,,---,0.02,VWS V13.01,2013-10-08 03:46:00,
2013-10-07 23:47:00,83.3,75.7,29.93,South,180,0.8,0.8,78,0.00,,---,0.02,VWS V13.01,2013-10-08 03:47:00,
2013-10-07 23:48:00,83.3,75.7,29.93,SSW,202,1.1,1.1,78,0.00,,---,0.02,VWS V13.01,2013-10-08 03:48:00,
2013-10-07 23:49:00,83.3,75.7,29.92,South,180,0.8,0.8,78,0.00,,---,0.02,VWS V13.01,2013-10-08 03:49:00,
2013-10-07 23:51:00,83.3,75.7,29.92,South,180,0.0,0.0,78,0.00,,---,0.02,VWS V13.01,2013-10-08 03:51:00,
2013-10-07 23:52:00,83.3,75.7,29.92,SE,135,2.2,2.2,78,0.00,,---,0.02,VWS V13.01,2013-10-08 03:52:00,
2013-10-07 23:53:00,83.3,75.7,29.92,SE,135,2.2,2.2,78,0.00,,---,0.02,VWS V13.01,2013-10-08 03:53:00,
2013-10-07 23:54:00,83.3,75.7,29.92,South,180,3.1,3.1,78,0.00,,---,0.02,VWS V13.01,2013-10-08 03:54:00,
2013-10-07 23:56:00,83.3,75.7,29.92,South,180,0.8,0.8,78,0.00,,---,0.00,VWS V13.01,2013-10-08 03:56:00,
2013-10-07 23:57:00,83.3,75.7,29.92,SSE,158,0.0,0.0,78,0.00,,---,0.00,VWS V13.01,2013-10-08 03:57:00,
2013-10-07 23:58:00,83.3,75.7,29.92,SSE,158,0.0,0.0,78,0.00,,---,0.00,VWS V13.01,2013-10-08 03:58:00,
2013-10-07 23:59:00,83.3,75.7,29.93,SSW,202,0.0,0.0,78,0.00,,---,0.00,VWS V13.01,2013-10-08 03:59:00,